PORTS® Data Listing: 8771341 Galveston Bay Entrance,

CO-OPS RAW PORTS DATA

************************      PRELIMINARY DATA      ************************** 

     THIS RAW DATA HAS NOT BEEN SUBJECT TO THE NATIONAL OCEAN SERVICE'S        
     QUALITY CONTROL OR QUALITY ASSURANCE PROCEDURES AND DOES NOT MEET         
     THE CRITERIA AND STANDARDS OF OFFICIAL NATIONAL OCEAN SERVICE             
     DATA.  IT IS RELEASED FOR LIMITED PUBLIC USE AS PRELIMINARY DATA TO       
     BE USED ONLY WITH APPROPRIATE CAUTION.                                    

************************      PRELIMINARY DATA      ************************** 


       CD   -   Calendar date
       T    -   Time
       TZ   -   Timezone
       PW   -   Predicted water level (feet above MLLW)
       OW   -   Observed water level (feet above MLLW)
       WS   -   Wind speed (knots)
       WD   -   Wind direction (degrees true)
       WG   -   Wind gust (knots)
       AT   -   Air temperature (degrees farenheit)
       WT   -   Water temperature (degrees farenheit)
       AP   -   Air pressure (millibars)
       SA   -   Salinty (PSU - Practical Salinity Units)
       SG   -   Specific gravity
       RH   -   Relative humidity
       AG   -   Air gap (feet)
       VI   -   Visibility (nautical miles)

       ** NOTE **
       A variable that has its data fields filled with "9"s, indicates that
       data was not collected for that sample period.
       **********


STATION NAME: Galveston Bay Entrance (8771341)
****************************************************************************************************
    CD       T    TZ    PW     OW    WS   WD   WG    AT    WT    AP    SA    SG     RH    AG   VI
****************************************************************************************************
2020/02/14 07:48 CST    0.94   1.78   21   45   25  43.9  56.5 1028.2 -9.9 -9.999 -99.9 -99.99 -9.99
2020/02/14 07:54 CST    0.94   1.80   21   47   26  43.5  56.5 1028.1 -9.9 -9.999 -99.9 -99.99 -9.99
2020/02/14 08:00 CST    0.95   1.84   20   50   26  43.7  56.5 1028.2 -9.9 -9.999 -99.9 -99.99 -9.99
2020/02/14 08:06 CST    0.96   1.87   22   52   26  44.1  56.5 1028.3 -9.9 -9.999 -99.9 -99.99 -9.99
2020/02/14 08:12 CST    0.96   1.89   19   54   24  44.2  56.5 1028.5 -9.9 -9.999 -99.9 -99.99 -9.99
2020/02/14 08:18 CST    0.96   1.87   19   48   23  43.9  56.5 1028.5 -9.9 -9.999 -99.9 -99.99 -9.99
2020/02/14 08:24 CST    0.97   1.93   20   52   22  43.9  56.5 1028.5 -9.9 -9.999 -99.9 -99.99 -9.99
2020/02/14 08:30 CST    0.97   1.89   19   50   23  43.9  56.5 1028.7 -9.9 -9.999 -99.9 -99.99 -9.99
2020/02/14 08:36 CST    0.97   1.93   19   57   23  44.2  56.5 1028.7 -9.9 -9.999 -99.9 -99.99 -9.99
2020/02/14 08:42 CST    0.97   1.94   20   53   23  44.1  56.5 1028.9 -9.9 -9.999 -99.9 -99.99 -9.99
2020/02/14 08:48 CST    0.97   1.94   19   58   23  44.1  56.5 1028.9 -9.9 -9.999 -99.9 -99.99 -9.99
2020/02/14 08:54 CST    0.96   1.97   18   59   24  44.2  56.5 1028.9 -9.9 -9.999 -99.9 -99.99 -9.99
2020/02/14 09:00 CST    0.96   2.02   18   63   23  44.6  56.5 1029.0 -9.9 -9.999 -99.9 -99.99 -9.99
2020/02/14 09:06 CST    0.95   2.01   18   56   23  44.4  56.5 1029.1 -9.9 -9.999 -99.9 -99.99 -9.99
2020/02/14 09:12 CST    0.95   2.00   19   63   22  44.2  56.5 1029.1 -9.9 -9.999 -99.9 -99.99 -9.99
2020/02/14 09:18 CST    0.94   1.96   18   64   21  44.2  56.3 1029.2 -9.9 -9.999 -99.9 -99.99 -9.99
2020/02/14 09:24 CST    0.93   1.93   17   61   21  44.8  56.3 1029.4 -9.9 -9.999 -99.9 -99.99 -9.99
2020/02/14 09:30 CST    0.92   1.90   16   59   22  44.2  56.3 1029.4 -9.9 -9.999 -99.9 -99.99 -9.99
2020/02/14 09:36 CST    0.91   1.89   16   59   20  45.0  56.3 1029.4 -9.9 -9.999 -99.9 -99.99 -9.99
2020/02/14 09:42 CST    0.90   1.89   16   59   20  44.8  56.3 1029.5 -9.9 -9.999 -99.9 -99.99 -9.99
2020/02/14 09:48 CST    0.89   1.87   15   53   20  44.6  56.3 1029.5 -9.9 -9.999 -99.9 -99.99 -9.99
2020/02/14 09:54 CST    0.88   1.83   16   68   21  45.1  56.3 1029.5 -9.9 -9.999 -99.9 -99.99 -9.99
2020/02/14 10:00 CST    0.86   1.82   16   73   19  45.0  56.3 1029.6 -9.9 -9.999 -99.9 -99.99 -9.99
2020/02/14 10:06 CST    0.85   1.79   17   66   20  45.0  56.3 1029.7 -9.9 -9.999 -99.9 -99.99 -9.99
2020/02/14 10:12 CST    0.84   1.78   15   64   19  45.5  56.3 1029.6 -9.9 -9.999 -99.9 -99.99 -9.99
2020/02/14 10:18 CST    0.82   1.79   14   62   18  46.0  56.3 1029.6 -9.9 -9.999 -99.9 -99.99 -9.99
2020/02/14 10:24 CST    0.81   1.80   14   62   21  46.0  56.3 1029.5 -9.9 -9.999 -99.9 -99.99 -9.99
2020/02/14 10:30 CST    0.79   1.77   16   62   19  46.0  56.3 1029.5 -9.9 -9.999 -99.9 -99.99 -9.99
2020/02/14 10:36 CST    0.77   1.75   16   58   18  46.0  56.3 1029.5 -9.9 -9.999 -99.9 -99.99 -9.99
2020/02/14 10:42 CST    0.76   1.71   15   74   18  46.8  56.5 1029.5 -9.9 -9.999 -99.9 -99.99 -9.99
2020/02/14 10:48 CST    0.74   1.68   15   72   20  46.6  56.5 1029.5 -9.9 -9.999 -99.9 -99.99 -9.99
2020/02/14 10:54 CST    0.73   1.63   15   81   19  46.2  56.3 1029.5 -9.9 -9.999 -99.9 -99.99 -9.99
2020/02/14 11:00 CST    0.71   1.60   17   68   20  46.2  56.3 1029.4 -9.9 -9.999 -99.9 -99.99 -9.99
2020/02/14 11:06 CST    0.69   1.58   15   64   18  46.4  56.5 1029.4 -9.9 -9.999 -99.9 -99.99 -9.99
2020/02/14 11:12 CST    0.68   1.54   15   70   17  46.8  56.5 1029.4 -9.9 -9.999 -99.9 -99.99 -9.99
2020/02/14 11:18 CST    0.66   1.47   14   69   19  46.8  56.5 1029.4 -9.9 -9.999 -99.9 -99.99 -9.99
2020/02/14 11:24 CST    0.65   1.50   15   74   18  46.4  56.5 1029.4 -9.9 -9.999 -99.9 -99.99 -9.99
2020/02/14 11:30 CST    0.63   1.44   15   75   18  46.8  56.7 1029.3 -9.9 -9.999 -99.9 -99.99 -9.99
2020/02/14 11:36 CST    0.62   1.39   15   78   18  46.9  56.7 1029.3 -9.9 -9.999 -99.9 -99.99 -9.99
2020/02/14 11:42 CST    0.61   1.39   15   80   17  46.8  56.8 1029.3 -9.9 -9.999 -99.9 -99.99 -9.99
2020/02/14 11:48 CST    0.59   1.32   15   77   18  46.8  56.7 1029.1 -9.9 -9.999 -99.9 -99.99 -9.99
2020/02/14 11:54 CST    0.58   1.31   13   74   16  46.8  56.7 1029.1 -9.9 -9.999 -99.9 -99.99 -9.99
2020/02/14 12:00 CST    0.57   1.27   14   69   18  46.8  56.7 1029.0 -9.9 -9.999 -99.9 -99.99 -9.99
2020/02/14 12:06 CST    0.56   1.21   14   73   17  46.9  56.8 1028.8 -9.9 -9.999 -99.9 -99.99 -9.99
2020/02/14 12:12 CST    0.55   1.16   13   73   17  46.9  56.8 1028.8 -9.9 -9.999 -99.9 -99.99 -9.99
2020/02/14 12:18 CST    0.54   1.15   15   74   17  46.9  57.0 1028.7 -9.9 -9.999 -99.9 -99.99 -9.99
2020/02/14 12:24 CST    0.53   1.13   14   68   16  46.9  57.0 1028.5 -9.9 -9.999 -99.9 -99.99 -9.99
2020/02/14 12:30 CST    0.52   1.15   15   71   17  47.1  57.2 1028.4 -9.9 -9.999 -99.9 -99.99 -9.99
2020/02/14 12:36 CST    0.51   1.15   15   64   18  47.3  57.2 1028.3 -9.9 -9.999 -99.9 -99.99 -9.99
2020/02/14 12:42 CST    0.51   1.17   13   68   17  47.8  57.2 1028.3 -9.9 -9.999 -99.9 -99.99 -9.99
2020/02/14 12:48 CST    0.50   1.12   13   74   16  47.3  57.2 1028.3 -9.9 -9.999 -99.9 -99.99 -9.99
2020/02/14 12:54 CST    0.50   1.12   13   68   16  47.5  57.0 1028.1 -9.9 -9.999 -99.9 -99.99 -9.99
2020/02/14 13:00 CST    0.49   1.11   13   57   17  47.5  56.8 1027.9 -9.9 -9.999 -99.9 -99.99 -9.99
2020/02/14 13:06 CST    0.49   1.11   12   66   16  48.0  56.8 1027.9 -9.9 -9.999 -99.9 -99.99 -9.99
2020/02/14 13:12 CST    0.48   1.13   11   63   16  48.0  56.7 1027.8 -9.9 -9.999 -99.9 -99.99 -9.99
2020/02/14 13:18 CST    0.48   1.12   13   66   17  48.0  56.7 1027.8 -9.9 -9.999 -99.9 -99.99 -9.99
2020/02/14 13:24 CST    0.47   1.09   13   68   15  47.8  56.7 1027.7 -9.9 -9.999 -99.9 -99.99 -9.99
2020/02/14 13:30 CST    0.47   1.11   11   67   14  48.4  56.7 1027.6 -9.9 -9.999 -99.9 -99.99 -9.99
2020/02/14 13:36 CST    0.47   1.11   12   71   15  48.7  56.7 1027.5 -9.9 -9.999 -99.9 -99.99 -9.99
2020/02/14 13:42 CST    0.47   1.14   13   69   16  48.4  56.5 1027.4 -9.9 -9.999 -99.9 -99.99 -9.99
2020/02/14 13:48 CST    0.47   1.15   12   71   15  48.6  56.5 1027.3 -9.9 -9.999 -99.9 -99.99 -9.99
2020/02/14 13:54 CST    0.47   1.13   11   77   14  48.7  56.7 1027.3 -9.9 -9.999 -99.9 -99.99 -9.99
2020/02/14 14:00 CST    0.47   1.12   12   70   14  48.9  56.8 1027.3 -9.9 -9.999 -99.9 -99.99 -9.99
2020/02/14 14:06 CST    0.47   1.12   11   76   13  49.3  57.0 1027.2 -9.9 -9.999 -99.9 -99.99 -9.99
2020/02/14 14:12 CST    0.47   1.11   11   83   14  48.9  57.2 1027.2 -9.9 -9.999 -99.9 -99.99 -9.99
2020/02/14 14:18 CST    0.47   1.12   11   79   13  49.3  57.2 1027.1 -9.9 -9.999 -99.9 -99.99 -9.99
2020/02/14 14:24 CST    0.47   1.09   10   84   13  49.3  57.2 1027.1 -9.9 -9.999 -99.9 -99.99 -9.99
2020/02/14 14:30 CST    0.47   1.12   10   87   13  49.3  57.0 1027.0 -9.9 -9.999 -99.9 -99.99 -9.99
2020/02/14 14:36 CST    0.47   1.09    9   82   14  49.6  57.0 1026.9 -9.9 -9.999 -99.9 -99.99 -9.99
2020/02/14 14:42 CST    0.47   1.13   11   81   13  49.6  57.2 1026.7 -9.9 -9.999 -99.9 -99.99 -9.99
2020/02/14 14:48 CST    0.48   1.15   11   79   13  49.8  57.2 1026.7 -9.9 -9.999 -99.9 -99.99 -9.99
2020/02/14 14:54 CST    0.48   1.19   11   81   12  50.0  57.2 1026.6 -9.9 -9.999 -99.9 -99.99 -9.99
2020/02/14 15:00 CST    0.48   1.18   10   83   12  50.0  57.2 1026.5 -9.9 -9.999 -99.9 -99.99 -9.99
2020/02/14 15:06 CST    0.49   1.19   11   76   13  50.0  57.4 1026.5 -9.9 -9.999 -99.9 -99.99 -9.99
2020/02/14 15:12 CST    0.49   1.14   11   86   13  50.0  57.6 1026.5 -9.9 -9.999 -99.9 -99.99 -9.99
2020/02/14 15:18 CST    0.50   1.21   10   94   13  50.2  57.6 1026.5 -9.9 -9.999 -99.9 -99.99 -9.99
2020/02/14 15:24 CST    0.50   1.25    8   85   11  50.4  57.6 1026.4 -9.9 -9.999 -99.9 -99.99 -9.99
2020/02/14 15:30 CST    0.51   1.21   10   91   11  50.4  57.6 1026.3 -9.9 -9.999 -99.9 -99.99 -9.99
2020/02/14 15:36 CST    0.52   1.18   10   89   12  50.9  57.6 1026.2 -9.9 -9.999 -99.9 -99.99 -9.99
2020/02/14 15:42 CST    0.53   1.11    9   80   12  50.7  57.7 1026.1 -9.9 -9.999 -99.9 -99.99 -9.99
2020/02/14 15:48 CST    0.53   1.23   10   84   12  50.9  57.9 1026.1 -9.9 -9.999 -99.9 -99.99 -9.99
2020/02/14 15:54 CST    0.54   1.34   10   86   12  51.1  57.9 1026.2 -9.9 -9.999 -99.9 -99.99 -9.99
2020/02/14 16:00 CST    0.55   1.30   10   88   12  51.3  57.9 1026.2 -9.9 -9.999 -99.9 -99.99 -9.99
2020/02/14 16:06 CST    0.56   1.21    9   84   11  51.4  57.9 1026.2 -9.9 -9.999 -99.9 -99.99 -9.99
2020/02/14 16:12 CST    0.57   1.32    9   88   11  51.4  58.1 1026.1 -9.9 -9.999 -99.9 -99.99 -9.99
2020/02/14 16:18 CST    0.58   1.33    9   81   11  51.6  58.1 1026.1 -9.9 -9.999 -99.9 -99.99 -9.99
2020/02/14 16:24 CST    0.59   1.41    9   80   11  51.8  58.3 1026.1 -9.9 -9.999 -99.9 -99.99 -9.99
2020/02/14 16:30 CST    0.60   1.33    8   90   12  51.8  58.3 1026.1 -9.9 -9.999 -99.9 -99.99 -9.99
2020/02/14 16:36 CST    0.61   1.35    9   89   11  52.0  58.3 1026.1 -9.9 -9.999 -99.9 -99.99 -9.99
2020/02/14 16:42 CST    0.62   1.40    9   86   12  52.2  58.3 1026.1 -9.9 -9.999 -99.9 -99.99 -9.99
2020/02/14 16:48 CST    0.63   1.35    9   93   11  52.2  58.3 1026.1 -9.9 -9.999 -99.9 -99.99 -9.99
2020/02/14 16:54 CST    0.65   1.43    8   90    9  52.3  58.3 1026.2 -9.9 -9.999 -99.9 -99.99 -9.99
2020/02/14 17:00 CST    0.66   1.46    7   88   10  52.3  58.3 1026.2 -9.9 -9.999 -99.9 -99.99 -9.99
2020/02/14 17:06 CST    0.67   1.42    9   97   11  52.5  58.3 1026.2 -9.9 -9.999 -99.9 -99.99 -9.99
2020/02/14 17:12 CST    0.68   1.39    9   92   11  52.5  58.3 1026.2 -9.9 -9.999 -99.9 -99.99 -9.99
2020/02/14 17:18 CST    0.69   1.45    9   95   11  52.7  58.5 1026.1 -9.9 -9.999 -99.9 -99.99 -9.99
2020/02/14 17:24 CST    0.70   1.50    9   95   11  52.9  58.5 1026.2 -9.9 -9.999 -99.9 -99.99 -9.99
2020/02/14 17:30 CST    0.72   1.56    9   93   11  52.9  58.5 1026.2 -9.9 -9.999 -99.9 -99.99 -9.99
2020/02/14 17:36 CST    0.73   1.55    9   91   10  52.9  58.5 1026.2 -9.9 -9.999 -99.9 -99.99 -9.99
2020/02/14 17:42 CST    0.74   1.55   10   88   11  53.1  58.5 1026.1 -9.9 -9.999 -99.9 -99.99 -9.99
2020/02/14 17:48 CST    0.75   1.53   10   83   11  53.1  58.5 1026.1 -9.9 -9.999 -99.9 -99.99 -9.99
2020/02/14 17:54 CST    0.76   1.53   10   95   11  53.1  58.5 1026.1 -9.9 -9.999 -99.9 -99.99 -9.99
2020/02/14 18:00 CST    0.77   1.58   10   97   11  53.4  58.5 1026.1 -9.9 -9.999 -99.9 -99.99 -9.99
2020/02/14 18:06 CST    0.78   1.59   11  101   13  53.2  58.5 1026.0 -9.9 -9.999 -99.9 -99.99 -9.99
2020/02/14 18:12 CST    0.79   1.58   10   91   13  53.4  58.5 1026.0 -9.9 -9.999 -99.9 -99.99 -9.99
2020/02/14 18:18 CST    0.80   1.58   12   89   14  53.6  58.5 1026.0 -9.9 -9.999 -99.9 -99.99 -9.99
2020/02/14 18:24 CST    0.80   1.57   12   98   13  53.8  58.5 1026.0 -9.9 -9.999 -99.9 -99.99 -9.99
2020/02/14 18:30 CST    0.81   1.56   12   90   14  54.0  58.5 1025.8 -9.9 -9.999 -99.9 -99.99 -9.99
2020/02/14 18:36 CST    0.82   1.55   12   90   14  54.0  58.5 1025.8 -9.9 -9.999 -99.9 -99.99 -9.99
2020/02/14 18:42 CST    0.83   1.57   11   91   14  54.3  58.5 1025.8 -9.9 -9.999 -99.9 -99.99 -9.99
2020/02/14 18:48 CST    0.83   1.58   12   85   15  54.5  58.5 1025.8 -9.9 -9.999 -99.9 -99.99 -9.99
2020/02/14 18:54 CST    0.84   1.57   13   90   14  54.5  58.5 1025.9 -9.9 -9.999 -99.9 -99.99 -9.99
2020/02/14 19:00 CST    0.84   1.58   14   88   16  54.7  58.5 1025.9 -9.9 -9.999 -99.9 -99.99 -9.99
2020/02/14 19:06 CST    0.85   1.59   14   87   16  54.7  58.5 1026.0 -9.9 -9.999 -99.9 -99.99 -9.99
2020/02/14 19:12 CST    0.85   1.59   14   95   16  54.7  58.5 1026.1 -9.9 -9.999 -99.9 -99.99 -9.99
2020/02/14 19:18 CST    0.86   1.58   15   91   16  54.7  58.5 1026.1 -9.9 -9.999 -99.9 -99.99 -9.99
2020/02/14 19:24 CST    0.86   1.57   13   98   15  55.0  58.5 1026.1 -9.9 -9.999 -99.9 -99.99 -9.99
2020/02/14 19:30 CST    0.86   1.57   12   97   15  55.0  58.5 1026.2 -9.9 -9.999 -99.9 -99.99 -9.99
2020/02/14 19:36 CST    0.86   1.58   12   99   14  55.0  58.5 1026.2 -9.9 -9.999 -99.9 -99.99 -9.99
2020/02/14 19:42 CST    0.86   1.57   12   97   14  55.0  58.3 1026.3 -9.9 -9.999 -99.9 -99.99 -9.99
2020/02/14 19:48 CST    0.86   1.58   10  102   12  55.2  58.3 1026.4 -9.9 -9.999 -99.9 -99.99 -9.99
2020/02/14 19:54 CST    0.86   1.59   10   98   12  55.4  58.3 1026.4 -9.9 -9.999 -99.9 -99.99 -9.99
2020/02/14 20:00 CST    0.86   1.56    9   94   13  55.4  58.3 1026.4 -9.9 -9.999 -99.9 -99.99 -9.99
2020/02/14 20:06 CST    0.85   1.59   10   90   11  55.8  58.3 1026.4 -9.9 -9.999 -99.9 -99.99 -9.99
2020/02/14 20:12 CST    0.85   1.61   10   78   12  55.8  58.3 1026.4 -9.9 -9.999 -99.9 -99.99 -9.99
2020/02/14 20:18 CST    0.84   1.60    9   86   12  56.1  58.3 1026.5 -9.9 -9.999 -99.9 -99.99 -9.99
2020/02/14 20:24 CST    0.84   1.59   10   78   11  56.5  58.3 1026.6 -9.9 -9.999 -99.9 -99.99 -9.99
2020/02/14 20:30 CST    0.83   1.57   12   74   13  56.7  58.3 1026.6 -9.9 -9.999 -99.9 -99.99 -9.99
2020/02/14 20:36 CST    0.82   1.54   14   84   15  56.7  58.3 1026.5 -9.9 -9.999 -99.9 -99.99 -9.99
2020/02/14 20:42 CST    0.81   1.56   13   76   15  56.7  58.1 1026.5 -9.9 -9.999 -99.9 -99.99 -9.99
2020/02/14 20:48 CST    0.80   1.56   14   85   16  56.7  58.1 1026.5 -9.9 -9.999 -99.9 -99.99 -9.99
2020/02/14 20:54 CST    0.79   1.53   15   82   17  56.7  58.1 1026.5 -9.9 -9.999 -99.9 -99.99 -9.99
2020/02/14 21:00 CST    0.77   1.54   14   90   17  56.8  58.1 1026.6 -9.9 -9.999 -99.9 -99.99 -9.99
2020/02/14 21:06 CST    0.76   1.51   16   80   17  56.7  58.1 1026.6 -9.9 -9.999 -99.9 -99.99 -9.99
2020/02/14 21:12 CST    0.74   1.52   15   83   17  56.7  58.1 1026.7 -9.9 -9.999 -99.9 -99.99 -9.99
2020/02/14 21:18 CST    0.73   1.53   15   85   18  56.7  58.1 1026.7 -9.9 -9.999 -99.9 -99.99 -9.99
2020/02/14 21:24 CST    0.71   1.49   15   90   18  56.7  58.1 1026.7 -9.9 -9.999 -99.9 -99.99 -9.99
2020/02/14 21:30 CST    0.69   1.48   17   92   19  56.5  58.1 1026.6 -9.9 -9.999 -99.9 -99.99 -9.99
2020/02/14 21:36 CST    0.67   1.44   17   87   19  56.5  58.1 1026.6 -9.9 -9.999 -99.9 -99.99 -9.99
2020/02/14 21:42 CST    0.65   1.44   15   89   18  56.5  58.1 1026.8 -9.9 -9.999 -99.9 -99.99 -9.99
2020/02/14 21:48 CST    0.63   1.44   16   83   18  56.3  57.9 1026.8 -9.9 -9.999 -99.9 -99.99 -9.99
2020/02/14 21:54 CST    0.60   1.40   16   86   18  56.3  57.9 1026.9 -9.9 -9.999 -99.9 -99.99 -9.99
2020/02/14 22:00 CST    0.58   1.37   16   90   18  56.3  57.9 1026.9 -9.9 -9.999 -99.9 -99.99 -9.99
2020/02/14 22:06 CST    0.56   1.34   14   89   17  56.1  57.9 1026.9 -9.9 -9.999 -99.9 -99.99 -9.99
2020/02/14 22:12 CST    0.53   1.36   15   86   17  56.1  57.9 1026.8 -9.9 -9.999 -99.9 -99.99 -9.99
2020/02/14 22:18 CST    0.50   1.34   16   89   18  56.1  57.9 1026.7 -9.9 -9.999 -99.9 -99.99 -9.99
2020/02/14 22:24 CST    0.48   1.31   16   84   19  55.9  57.9 1026.5 -9.9 -9.999 -99.9 -99.99 -9.99
2020/02/14 22:30 CST    0.45   1.26   17   84   19  55.9  57.7 1026.5 -9.9 -9.999 -99.9 -99.99 -9.99
2020/02/14 22:36 CST    0.42   1.22   17   80   19  55.9  57.7 1026.4 -9.9 -9.999 -99.9 -99.99 -9.99
2020/02/14 22:42 CST    0.39   1.22   17   82   19  55.8  57.7 1026.3 -9.9 -9.999 -99.9 -99.99 -9.99
2020/02/14 22:48 CST    0.36   1.19   17   86   20  55.8  57.7 1026.3 -9.9 -9.999 -99.9 -99.99 -9.99
2020/02/14 22:54 CST    0.34   1.21   17   83   19  55.6  57.6 1026.2 -9.9 -9.999 -99.9 -99.99 -9.99
2020/02/14 23:00 CST    0.31   1.18   16   89   19  55.8  57.6 1026.2 -9.9 -9.999 -99.9 -99.99 -9.99
2020/02/14 23:06 CST    0.28   1.17   17   86   19  55.4  57.6 1026.2 -9.9 -9.999 -99.9 -99.99 -9.99
2020/02/14 23:12 CST    0.25   1.17   17   88   19  55.4  57.6 1026.2 -9.9 -9.999 -99.9 -99.99 -9.99
2020/02/14 23:18 CST    0.22   1.17   17   95   20  55.4  57.6 1026.1 -9.9 -9.999 -99.9 -99.99 -9.99
2020/02/14 23:24 CST    0.19   1.15   17   94   19  55.2  57.6 1026.1 -9.9 -9.999 -99.9 -99.99 -9.99
2020/02/14 23:30 CST    0.16   1.11   17   85   20  55.2  57.7 1026.0 -9.9 -9.999 -99.9 -99.99 -9.99
2020/02/14 23:36 CST    0.14   1.07   17   85   20  55.0  57.7 1025.9 -9.9 -9.999 -99.9 -99.99 -9.99
2020/02/14 23:42 CST    0.11   1.06   16   88   20  55.2  57.7 1025.9 -9.9 -9.999 -99.9 -99.99 -9.99
2020/02/14 23:48 CST    0.08   1.05   17   78   19  54.9  57.7 1025.8 -9.9 -9.999 -99.9 -99.99 -9.99
2020/02/14 23:54 CST    0.06   1.04   16   82   21  54.9  57.7 1025.7 -9.9 -9.999 -99.9 -99.99 -9.99
2020/02/15 00:00 CST    0.03   1.01   17   83   19  54.7  57.6 1025.8 -9.9 -9.999 -99.9 -99.99 -9.99
2020/02/15 00:06 CST    0.01   0.97   16   78   18  54.7  57.6 1025.8 -9.9 -9.999 -99.9 -99.99 -9.99
2020/02/15 00:12 CST   -0.02   0.97   15   79   18  54.5  57.4 1025.8 -9.9 -9.999 -99.9 -99.99 -9.99
2020/02/15 00:18 CST   -0.04   0.97   15   84   18  54.5  57.4 1025.8 -9.9 -9.999 -99.9 -99.99 -9.99
2020/02/15 00:24 CST   -0.06   0.95   16   85   18  54.7  57.6 1025.7 -9.9 -9.999 -99.9 -99.99 -9.99
2020/02/15 00:30 CST   -0.08   0.90   14   84   17  54.7  57.6 1025.6 -9.9 -9.999 -99.9 -99.99 -9.99
2020/02/15 00:36 CST   -0.10   0.89   16   88   17  54.5  57.6 1025.6 -9.9 -9.999 -99.9 -99.99 -9.99
2020/02/15 00:42 CST   -0.12   0.84   15   83   17  54.7  57.7 1025.6 -9.9 -9.999 -99.9 -99.99 -9.99
2020/02/15 00:48 CST   -0.14   0.84   13   91   17  54.7  57.7 1025.6 -9.9 -9.999 -99.9 -99.99 -9.99
2020/02/15 00:54 CST   -0.16   0.83   15   92   17  54.5  57.7 1025.5 -9.9 -9.999 -99.9 -99.99 -9.99
2020/02/15 01:00 CST   -0.18   0.84   14   90   17  54.7  57.7 1025.4 -9.9 -9.999 -99.9 -99.99 -9.99
2020/02/15 01:06 CST   -0.19   0.83   16   92   18  54.5  57.7 1025.4 -9.9 -9.999 -99.9 -99.99 -9.99
2020/02/15 01:12 CST   -0.20   0.81   16   92   18  54.5  57.7 1025.3 -9.9 -9.999 -99.9 -99.99 -9.99
2020/02/15 01:18 CST   -0.22   0.80   15   93   18  54.5  57.7 1025.3 -9.9 -9.999 -99.9 -99.99 -9.99
2020/02/15 01:24 CST   -0.23   0.76   14   97   17  54.5  57.7 1025.3 -9.9 -9.999 -99.9 -99.99 -9.99
2020/02/15 01:30 CST   -0.24   0.75   15   92   19  54.5  57.6 1025.2 -9.9 -9.999 -99.9 -99.99 -9.99
2020/02/15 01:36 CST   -0.25   0.72   17  102   18  54.7  57.6 1025.2 -9.9 -9.999 -99.9 -99.99 -9.99
2020/02/15 01:42 CST   -0.26   0.71   17   92   18  54.7  57.6 1025.2 -9.9 -9.999 -99.9 -99.99 -9.99
2020/02/15 01:48 CST   -0.27   0.75   16  101   18  54.7  57.6 1025.1 -9.9 -9.999 -99.9 -99.99 -9.99
2020/02/15 01:54 CST   -0.28   0.72   15   99   18  54.7  57.4 1025.1 -9.9 -9.999 -99.9 -99.99 -9.99
2020/02/15 02:00 CST   -0.28   0.64   16   97   18  54.7  57.4 1025.0 -9.9 -9.999 -99.9 -99.99 -9.99
2020/02/15 02:06 CST   -0.29   0.70   14   97   18  54.9  57.2 1025.0 -9.9 -9.999 -99.9 -99.99 -9.99
2020/02/15 02:12 CST   -0.29   0.72   15   97   18  54.9  57.2 1024.9 -9.9 -9.999 -99.9 -99.99 -9.99
2020/02/15 02:18 CST   -0.29   0.76   16  104   18  55.0  57.0 1024.8 -9.9 -9.999 -99.9 -99.99 -9.99
2020/02/15 02:24 CST   -0.30   0.71   16   99   18  54.9  57.0 1024.7 -9.9 -9.999 -99.9 -99.99 -9.99
2020/02/15 02:30 CST   -0.30   0.75   17  100   19  55.2  57.0 1024.6 -9.9 -9.999 -99.9 -99.99 -9.99
2020/02/15 02:36 CST   -0.30   0.74   14  101   18  55.2  57.0 1024.6 -9.9 -9.999 -99.9 -99.99 -9.99
2020/02/15 02:42 CST   -0.30   0.73   15  108   18  55.4  57.0 1024.6 -9.9 -9.999 -99.9 -99.99 -9.99
2020/02/15 02:48 CST   -0.29   0.75   15  107   17  55.4  57.0 1024.5 -9.9 -9.999 -99.9 -99.99 -9.99
2020/02/15 02:54 CST   -0.29   0.74   15  102   16  55.4  57.0 1024.3 -9.9 -9.999 -99.9 -99.99 -9.99
2020/02/15 03:00 CST   -0.29   0.73   15  107   18  55.6  57.0 1024.2 -9.9 -9.999 -99.9 -99.99 -9.99
2020/02/15 03:06 CST   -0.28   0.79   16  107   17  55.8  57.0 1024.1 -9.9 -9.999 -99.9 -99.99 -9.99
2020/02/15 03:12 CST   -0.28   0.82   15  109   17  55.8  57.0 1024.1 -9.9 -9.999 -99.9 -99.99 -9.99
2020/02/15 03:18 CST   -0.27   0.79   16  112   18  56.1  57.0 1024.0 -9.9 -9.999 -99.9 -99.99 -9.99
2020/02/15 03:24 CST   -0.26   0.80   17  110   20  55.9  57.0 1024.0 -9.9 -9.999 -99.9 -99.99 -9.99
2020/02/15 03:30 CST   -0.25   0.84   14  115   17  55.9  56.8 1024.0 -9.9 -9.999 -99.9 -99.99 -9.99
2020/02/15 03:36 CST   -0.24   0.87   13  113   17  55.9  56.8 1024.0 -9.9 -9.999 -99.9 -99.99 -9.99
2020/02/15 03:42 CST   -0.23   0.87   15  114   17  55.9  56.8 1024.0 -9.9 -9.999 -99.9 -99.99 -9.99
2020/02/15 03:48 CST   -0.22   0.89   15  107   17  55.9  56.7 1023.9 -9.9 -9.999 -99.9 -99.99 -9.99
2020/02/15 03:54 CST   -0.21   0.93   14  106   17  56.1  56.7 1023.9 -9.9 -9.999 -99.9 -99.99 -9.99
2020/02/15 04:00 CST   -0.19   0.92   12  110   15  56.1  56.7 1023.9 -9.9 -9.999 -99.9 -99.99 -9.99
2020/02/15 04:06 CST   -0.18   0.96   11  109   15  56.1  56.7 1023.9 -9.9 -9.999 -99.9 -99.99 -9.99
2020/02/15 04:12 CST   -0.16   0.96   11  113   16  56.3  56.5 1023.9 -9.9 -9.999 -99.9 -99.99 -9.99
2020/02/15 04:18 CST   -0.15   0.98   14  110   16  56.3  56.5 1023.8 -9.9 -9.999 -99.9 -99.99 -9.99
2020/02/15 04:24 CST   -0.13   1.01   13  108   16  56.3  56.7 1023.8 -9.9 -9.999 -99.9 -99.99 -9.99
2020/02/15 04:30 CST   -0.11   1.02   12  109   14  56.3  56.7 1023.8 -9.9 -9.999 -99.9 -99.99 -9.99
2020/02/15 04:36 CST   -0.09   1.03   12  111   16  56.5  56.7 1023.7 -9.9 -9.999 -99.9 -99.99 -9.99
2020/02/15 04:42 CST   -0.07   1.08   11  109   15  56.3  56.7 1023.7 -9.9 -9.999 -99.9 -99.99 -9.99
2020/02/15 04:48 CST   -0.05   1.13   11  110   13  56.5  56.7 1023.8 -9.9 -9.999 -99.9 -99.99 -9.99
2020/02/15 04:54 CST   -0.03   1.17   13  107   14  56.5  56.7 1023.8 -9.9 -9.999 -99.9 -99.99 -9.99
2020/02/15 05:00 CST   -0.01   1.18   11  110   14  56.7  56.7 1023.8 -9.9 -9.999 -99.9 -99.99 -9.99
2020/02/15 05:06 CST    0.02   1.21   12  113   15  56.8  56.7 1023.8 -9.9 -9.999 -99.9 -99.99 -9.99
2020/02/15 05:12 CST    0.04   1.23   13  109   14  56.8  56.8 1023.7 -9.9 -9.999 -99.9 -99.99 -9.99
2020/02/15 05:18 CST    0.07   1.24   12  104   14  56.8  56.8 1023.5 -9.9 -9.999 -99.9 -99.99 -9.99
2020/02/15 05:24 CST    0.09   1.30   13  101   14  57.0  56.8 1023.4 -9.9 -9.999 -99.9 -99.99 -9.99
2020/02/15 05:30 CST    0.12   1.34   13  101   15  57.0  56.8 1023.4 -9.9 -9.999 -99.9 -99.99 -9.99
2020/02/15 05:36 CST    0.14   1.34   15  108   16  57.2  56.8 1023.3 -9.9 -9.999 -99.9 -99.99 -9.99
2020/02/15 05:42 CST    0.17   1.39   13  109   15  57.2  57.0 1023.3 -9.9 -9.999 -99.9 -99.99 -9.99
2020/02/15 05:48 CST    0.19   1.44   15  108   17  57.2  57.0 1023.4 -9.9 -9.999 -99.9 -99.99 -9.99
2020/02/15 05:54 CST    0.22   1.42   13  110   16  57.2  57.0 1023.4 -9.9 -9.999 -99.9 -99.99 -9.99
2020/02/15 06:00 CST    0.25   1.51   12  111   15  57.2  57.0 1023.6 -9.9 -9.999 -99.9 -99.99 -9.99
2020/02/15 06:06 CST    0.27   1.54   12  108   15  57.2  57.0 1023.7 -9.9 -9.999 -99.9 -99.99 -9.99
2020/02/15 06:12 CST    0.30   1.52   12  101   14  57.4  57.0 1023.7 -9.9 -9.999 -99.9 -99.99 -9.99
2020/02/15 06:18 CST    0.33   1.51   13  109   14  57.4  57.2 1023.8 -9.9 -9.999 -99.9 -99.99 -9.99
2020/02/15 06:24 CST    0.35   1.58   11  107   14  57.4  57.4 1023.9 -9.9 -9.999 -99.9 -99.99 -9.99
2020/02/15 06:30 CST    0.38   1.60   12  102   13  57.6  57.4 1023.9 -9.9 -9.999 -99.9 -99.99 -9.99
2020/02/15 06:36 CST    0.41   1.65   12  101   14  57.4  57.4 1024.0 -9.9 -9.999 -99.9 -99.99 -9.99
2020/02/15 06:42 CST    0.44   1.68   11   96   13  57.4  57.4 1024.0 -9.9 -9.999 -99.9 -99.99 -9.99
2020/02/15 06:48 CST    0.46   1.74   11   96   13  57.4  57.6 1023.9 -9.9 -9.999 -99.9 -99.99 -9.99
2020/02/15 06:54 CST    0.49   1.74   11   93   12  57.4  57.6 1024.0 -9.9 -9.999 -99.9 -99.99 -9.99
2020/02/15 07:00 CST    0.52   1.74   11   98   13  57.6  57.6 1024.0 -9.9 -9.999 -99.9 -99.99 -9.99
2020/02/15 07:06 CST    0.54   1.75   11   94   12  57.6  57.6 1024.0 -9.9 -9.999 -99.9 -99.99 -9.99
2020/02/15 07:12 CST    0.57   1.77   11   90   12  57.6  57.6 1024.0 -9.9 -9.999 -99.9 -99.99 -9.99
2020/02/15 07:18 CST    0.59   1.80   10   86   11  57.6  57.6 1024.0 -9.9 -9.999 -99.9 -99.99 -9.99
2020/02/15 07:24 CST    0.62   1.81    9   82   11  57.7  57.6 1024.0 -9.9 -9.999 -99.9 -99.99 -9.99
2020/02/15 07:30 CST    0.64   1.85    8   67   10  56.8  57.6 1024.1 -9.9 -9.999 -99.9 -99.99 -9.99
2020/02/15 07:36 CST    0.67   1.91    9   18   10  51.1  57.6 1024.2 -9.9 -9.999 -99.9 -99.99 -9.99
2020/02/15 07:42 CST    0.69   1.91    9   19   12  51.8  57.6 1024.3 -9.9 -9.999 -99.9 -99.99 -9.99
2020/02/15 07:48 CST    0.72   1.93   13   24   16  52.5  57.4 1024.1 -9.9 -9.999 -99.9 -99.99 -9.99
2020/02/15 07:54 CST    0.74   1.96    7   35   14  52.5  57.4 1024.3 -9.9 -9.999 -99.9 -99.99 -9.99
2020/02/15 08:00 CST    0.76   1.96    6  100   10  58.1  57.4 1024.5 -9.9 -9.999 -99.9 -99.99 -9.99
2020/02/15 08:06 CST    0.78   1.96    7   93   10  57.4  57.2 1024.6 -9.9 -9.999 -99.9 -99.99 -9.99
2020/02/15 08:12 CST    0.80   1.99    6  103    7  58.8  57.2 1024.6 -9.9 -9.999 -99.9 -99.99 -9.99
2020/02/15 08:18 CST    0.82   1.94    5   97    8  58.6  57.2 1024.6 -9.9 -9.999 -99.9 -99.99 -9.99
2020/02/15 08:24 CST    0.84   1.99    8  102   10  59.0  57.0 1024.6 -9.9 -9.999 -99.9 -99.99 -9.99
2020/02/15 08:30 CST    0.86   2.00    7   29   11  53.2  57.0 1024.7 -9.9 -9.999 -99.9 -99.99 -9.99
2020/02/15 08:36 CST    0.88   2.05    9   20   11  53.4  57.0 1024.6 -9.9 -9.999 -99.9 -99.99 -9.99
2020/02/15 08:42 CST    0.90   2.05    7   59    9  54.1  57.0 1024.7 -9.9 -9.999 -99.9 -99.99 -9.99
2020/02/15 08:48 CST    0.91   2.07    9  106   11  59.0  57.0 1024.7 -9.9 -9.999 -99.9 -99.99 -9.99
2020/02/15 08:54 CST    0.93   2.07   10  107   11  59.2  57.0 1024.6 -9.9 -9.999 -99.9 -99.99 -9.99
2020/02/15 09:00 CST    0.94   2.08   10  108   12  59.2  56.8 1024.6 -9.9 -9.999 -99.9 -99.99 -9.99
2020/02/15 09:06 CST    0.95   2.10   12  109   14  59.2  56.8 1024.4 -9.9 -9.999 -99.9 -99.99 -9.99
2020/02/15 09:12 CST    0.97   2.15   13  108   15  59.2  56.8 1024.2 -9.9 -9.999 -99.9 -99.99 -9.99
2020/02/15 09:18 CST    0.98   2.14   14  105   16  59.2  56.8 1024.2 -9.9 -9.999 -99.9 -99.99 -9.99
2020/02/15 09:24 CST    0.99   2.15   12  107   14  59.2  56.8 1024.3 -9.9 -9.999 -99.9 -99.99 -9.99
2020/02/15 09:30 CST    1.00   2.18   14  106   15  59.4  56.7 1024.2 -9.9 -9.999 -99.9 -99.99 -9.99
2020/02/15 09:36 CST    1.00   2.17   15  106   16  59.4  56.7 1024.0 -9.9 -9.999 -99.9 -99.99 -9.99
2020/02/15 09:42 CST    1.01   2.16   13  107   15  59.2  56.7 1024.0 -9.9 -9.999 -99.9 -99.99 -9.99
2020/02/15 09:48 CST    1.02   2.15   14  104   16  59.2  56.7 1024.0 -9.9 -9.999 -99.9 -99.99 -9.99
2020/02/15 09:54 CST    1.02   2.17   13  104   15  59.4  56.7 1024.0 -9.9 -9.999 -99.9 -99.99 -9.99
2020/02/15 10:00 CST    1.03   2.18   12  103   15  59.4  56.7 1024.0 -9.9 -9.999 -99.9 -99.99 -9.99
2020/02/15 10:06 CST    1.03   2.20   13  108   16  59.5  56.8 1024.0 -9.9 -9.999 -99.9 -99.99 -9.99
2020/02/15 10:12 CST    1.03   2.23   12  104   15  59.5  56.8 1023.9 -9.9 -9.999 -99.9 -99.99 -9.99
2020/02/15 10:18 CST    1.03   2.21   14  106   16  59.7  56.8 1024.0 -9.9 -9.999 -99.9 -99.99 -9.99
2020/02/15 10:24 CST    1.03   2.20   13  104   15  59.7  56.8 1024.1 -9.9 -9.999 -99.9 -99.99 -9.99
2020/02/15 10:30 CST    1.03   2.18   12  101   15  59.7  57.0 1024.2 -9.9 -9.999 -99.9 -99.99 -9.99
2020/02/15 10:36 CST    1.03   2.18   11  101   14  59.7  57.0 1024.3 -9.9 -9.999 -99.9 -99.99 -9.99
2020/02/15 10:42 CST    1.03   2.19   11  101   13  59.9  57.2 1024.3 -9.9 -9.999 -99.9 -99.99 -9.99
2020/02/15 10:48 CST    1.02   2.20   11   99   13  59.9  57.2 1024.3 -9.9 -9.999 -99.9 -99.99 -9.99
2020/02/15 10:54 CST    1.02   2.17   12   91   15  59.9  57.2 1024.4 -9.9 -9.999 -99.9 -99.99 -9.99
2020/02/15 11:00 CST    1.01   2.18   11   92   13  59.9  57.2 1024.4 -9.9 -9.999 -99.9 -99.99 -9.99
2020/02/15 11:06 CST    1.01   2.17   10   92   11  59.9  57.4 1024.4 -9.9 -9.999 -99.9 -99.99 -9.99
2020/02/15 11:12 CST    1.00   2.18   10   90   12  59.9  57.4 1024.2 -9.9 -9.999 -99.9 -99.99 -9.99
2020/02/15 11:18 CST    1.00   2.13   11   87   12  59.7  57.4 1024.1 -9.9 -9.999 -99.9 -99.99 -9.99
2020/02/15 11:24 CST    0.99   2.15   12   90   13  59.7  57.4 1023.8 -9.9 -9.999 -99.9 -99.99 -9.99
2020/02/15 11:30 CST    0.98   2.12   12   90   13  59.9  57.4 1023.7 -9.9 -9.999 -99.9 -99.99 -9.99
2020/02/15 11:36 CST    0.97   2.07   12   91   13  59.9  57.6 1023.6 -9.9 -9.999 -99.9 -99.99 -9.99
2020/02/15 11:42 CST    0.97   2.02   11   88   13  60.1  57.6 1023.5 -9.9 -9.999 -99.9 -99.99 -9.99
2020/02/15 11:48 CST    0.96   2.05   12   88   13  60.1  57.6 1023.5 -9.9 -9.999 -99.9 -99.99 -9.99
2020/02/15 11:54 CST    0.95   2.06   12   88   14  60.3  57.6 1023.3 -9.9 -9.999 -99.9 -99.99 -9.99
2020/02/15 12:00 CST    0.94   2.06   12   86   14  60.3  57.6 1023.2 -9.9 -9.999 -99.9 -99.99 -9.99
2020/02/15 12:06 CST    0.93   2.10   11   85   13  60.3  57.7 1023.2 -9.9 -9.999 -99.9 -99.99 -9.99
2020/02/15 12:12 CST    0.93   2.11   11   84   12  60.3  57.7 1023.1 -9.9 -9.999 -99.9 -99.99 -9.99
2020/02/15 12:18 CST    0.92   2.12   11   83   13  60.3  57.7 1023.0 -9.9 -9.999 -99.9 -99.99 -9.99
2020/02/15 12:24 CST    0.91   2.13   11   68   12  58.5  57.7 1023.0 -9.9 -9.999 -99.9 -99.99 -9.99
2020/02/15 12:30 CST    0.90   2.12   10   68   11  58.8  57.7 1022.9 -9.9 -9.999 -99.9 -99.99 -9.99
2020/02/15 12:36 CST    0.89   2.09   11   89   12  60.3  57.9 1022.7 -9.9 -9.999 -99.9 -99.99 -9.99
2020/02/15 12:42 CST    0.89   2.09   12   91   13  60.3  57.9 1022.4 -9.9 -9.999 -99.9 -99.99 -9.99
2020/02/15 12:48 CST    0.88   2.06   12   93   14  60.4  57.9 1022.4 -9.9 -9.999 -99.9 -99.99 -9.99
2020/02/15 12:54 CST    0.87   2.09   11   96   13  60.4  57.9 1022.4 -9.9 -9.999 -99.9 -99.99 -9.99
2020/02/15 13:00 CST    0.86   2.10   11   99   13  60.4  57.9 1022.4 -9.9 -9.999 -99.9 -99.99 -9.99
2020/02/15 13:06 CST    0.86   2.14   11   95   13  60.4  58.1 1022.2 -9.9 -9.999 -99.9 -99.99 -9.99
2020/02/15 13:12 CST    0.85   2.04   11   90   13  60.3  58.1 1022.0 -9.9 -9.999 -99.9 -99.99 -9.99
2020/02/15 13:18 CST    0.84   2.10   11   88   14  59.9  58.1 1021.8 -9.9 -9.999 -99.9 -99.99 -9.99
2020/02/15 13:24 CST    0.84   2.12   11   87   12  59.9  58.1 1021.6 -9.9 -9.999 -99.9 -99.99 -9.99
2020/02/15 13:30 CST    0.83   2.14   11   90   13  59.9  58.1 1021.5 -9.9 -9.999 -99.9 -99.99 -9.99
2020/02/15 13:36 CST    0.83   2.12   11   91   13  60.1  58.1 1021.3 -9.9 -9.999 -99.9 -99.99 -9.99
2020/02/15 13:42 CST    0.82   2.08   14   85   16  59.5  58.3 1021.2 -9.9 -9.999 -99.9 -99.99 -9.99
2020/02/15 13:48 CST    0.82   2.07   14   84   16  59.4  58.3 1021.1 -9.9 -9.999 -99.9 -99.99 -9.99
2020/02/15 13:54 CST    0.81   2.04   14   86   16  59.4  58.3 1021.0 -9.9 -9.999 -99.9 -99.99 -9.99
2020/02/15 14:00 CST    0.81   2.07   14   88   17  59.4  58.3 1020.9 -9.9 -9.999 -99.9 -99.99 -9.99
2020/02/15 14:06 CST    0.80   2.09   14   91   16  59.5  58.5 1020.8 -9.9 -9.999 -99.9 -99.99 -9.99
2020/02/15 14:12 CST    0.80   2.07   14   88   16  59.4  58.5 1020.7 -9.9 -9.999 -99.9 -99.99 -9.99
2020/02/15 14:18 CST    0.79   2.09   16   87   18  59.0  58.5 1020.7 -9.9 -9.999 -99.9 -99.99 -9.99
2020/02/15 14:24 CST    0.79   2.13   16   90   19  59.0  58.5 1020.6 -9.9 -9.999 -99.9 -99.99 -9.99
2020/02/15 14:30 CST    0.79   2.09   15   90   18  59.0  58.5 1020.7 -9.9 -9.999 -99.9 -99.99 -9.99
2020/02/15 14:36 CST    0.78   2.09   13   89   16  59.2  58.6 1020.6 -9.9 -9.999 -99.9 -99.99 -9.99
2020/02/15 14:42 CST    0.78   2.04   15   87   17  59.0  58.6 1020.4 -9.9 -9.999 -99.9 -99.99 -9.99
2020/02/15 14:48 CST    0.78   2.06   16   90   18  59.0  58.6 1020.3 -9.9 -9.999 -99.9 -99.99 -9.99
2020/02/15 14:54 CST    0.77   2.11   15   90   18  59.0  58.6 1020.3 -9.9 -9.999 -99.9 -99.99 -9.99
2020/02/15 15:00 CST    0.77   2.13   16   89   18  59.0  58.6 1020.2 -9.9 -9.999 -99.9 -99.99 -9.99
2020/02/15 15:06 CST    0.77   2.14   16   89   18  59.0  58.6 1020.3 -9.9 -9.999 -99.9 -99.99 -9.99
2020/02/15 15:12 CST    0.76   2.15   15   92   17  59.0  58.6 1020.1 -9.9 -9.999 -99.9 -99.99 -9.99
2020/02/15 15:18 CST    0.76   2.13   17   95   19  59.0  58.8 1020.0 -9.9 -9.999 -99.9 -99.99 -9.99
2020/02/15 15:24 CST    0.76   2.13   17   91   19  58.8  58.8 1019.9 -9.9 -9.999 -99.9 -99.99 -9.99
2020/02/15 15:30 CST    0.76   2.11   17   94   20  58.8  58.8 1019.9 -9.9 -9.999 -99.9 -99.99 -9.99
2020/02/15 15:36 CST    0.75   2.10   16   93   19  58.8  58.8 1019.8 -9.9 -9.999 -99.9 -99.99 -9.99
2020/02/15 15:42 CST    0.75   2.08   16   96   19  59.0  58.8 1019.8 -9.9 -9.999 -99.9 -99.99 -9.99
2020/02/15 15:48 CST    0.75   2.09   18   96   19  59.0  58.8 1019.7 -9.9 -9.999 -99.9 -99.99 -9.99
2020/02/15 15:54 CST    0.75   2.11   17   96   20  59.0  58.8 1019.7 -9.9 -9.999 -99.9 -99.99 -9.99
2020/02/15 16:00 CST    0.75   2.12   16   96   20  59.0  58.8 1019.6 -9.9 -9.999 -99.9 -99.99 -9.99
2020/02/15 16:06 CST    0.75   2.12   17   97   19  59.0  58.8 1019.5 -9.9 -9.999 -99.9 -99.99 -9.99
2020/02/15 16:12 CST    0.75   2.14   17   95   19  59.0  58.8 1019.4 -9.9 -9.999 -99.9 -99.99 -9.99
2020/02/15 16:18 CST    0.75   2.14   16   98   19  59.2  58.8 1019.5 -9.9 -9.999 -99.9 -99.99 -9.99
2020/02/15 16:24 CST    0.75   2.10   15   96   18  59.2  58.8 1019.6 -9.9 -9.999 -99.9 -99.99 -9.99
2020/02/15 16:30 CST    0.75   2.16   16   94   18  59.2  58.8 1019.7 -9.9 -9.999 -99.9 -99.99 -9.99
2020/02/15 16:36 CST    0.75   2.15   15   95   17  59.2  58.8 1019.6 -9.9 -9.999 -99.9 -99.99 -9.99
2020/02/15 16:42 CST    0.75   2.12   16   95   18  59.2  58.8 1019.6 -9.9 -9.999 -99.9 -99.99 -9.99
2020/02/15 16:48 CST    0.75   2.15   16   94   18  59.2  58.8 1019.5 -9.9 -9.999 -99.9 -99.99 -9.99
2020/02/15 16:54 CST    0.75   2.09   17   95   19  59.2  58.8 1019.5 -9.9 -9.999 -99.9 -99.99 -9.99
2020/02/15 17:00 CST    0.75   2.12   16   91   18  59.4  58.8 1019.6 -9.9 -9.999 -99.9 -99.99 -9.99
2020/02/15 17:06 CST    0.76   2.11   15   89   17  59.4  58.8 1019.5 -9.9 -9.999 -99.9 -99.99 -9.99
2020/02/15 17:12 CST    0.76   2.13   16   89   17  59.4  58.8 1019.4 -9.9 -9.999 -99.9 -99.99 -9.99
2020/02/15 17:18 CST    0.76   2.13   14   92   17  59.4  58.8 1019.5 -9.9 -9.999 -99.9 -99.99 -9.99
2020/02/15 17:24 CST    0.77   2.10   15   92   17  59.4  58.8 1019.3 -9.9 -9.999 -99.9 -99.99 -9.99
2020/02/15 17:30 CST    0.77   2.09   16   95   19  59.5  58.8 1019.3 -9.9 -9.999 -99.9 -99.99 -9.99
2020/02/15 17:36 CST    0.77   2.12   17   95   19  59.4  58.8 1019.2 -9.9 -9.999 -99.9 -99.99 -9.99
2020/02/15 17:42 CST    0.78   2.12   16   95   18  59.4  58.8 1019.1 -9.9 -9.999 -99.9 -99.99 -9.99
2020/02/15 17:48 CST    0.78   2.12   15  100   20  59.4  58.8 1019.2 -9.9 -9.999 -99.9 -99.99 -9.99
2020/02/15 17:54 CST    0.79   2.15   16   99   18  59.4  58.8 1019.2 -9.9 -9.999 -99.9 -99.99 -9.99
2020/02/15 18:00 CST    0.79   2.17   15   93   18  59.4  58.8 1019.1 -9.9 -9.999 -99.9 -99.99 -9.99
2020/02/15 18:06 CST    0.80   2.18   15   97   18  59.5  58.8 1019.1 -9.9 -9.999 -99.9 -99.99 -9.99
2020/02/15 18:12 CST    0.80   2.20   17   99   19  59.7  58.8 1019.0 -9.9 -9.999 -99.9 -99.99 -9.99
2020/02/15 18:18 CST    0.81   2.22   15  100   18  59.7  58.8 1019.1 -9.9 -9.999 -99.9 -99.99 -9.99
2020/02/15 18:24 CST    0.81   2.18   16   96   18  59.7  58.8 1019.0 -9.9 -9.999 -99.9 -99.99 -9.99
2020/02/15 18:30 CST    0.82   2.19   15   92   17  59.7  58.8 1018.8 -9.9 -9.999 -99.9 -99.99 -9.99
2020/02/15 18:36 CST    0.82   2.25   14   91   16  59.7  58.8 1018.8 -9.9 -9.999 -99.9 -99.99 -9.99
2020/02/15 18:42 CST    0.83   2.24   14   85   16  59.5  58.8 1018.6 -9.9 -9.999 -99.9 -99.99 -9.99
2020/02/15 18:48 CST    0.83   2.27   13   88   15  59.7  58.8 1018.5 -9.9 -9.999 -99.9 -99.99 -9.99
2020/02/15 18:54 CST    0.84   2.27   14   92   15  59.9  58.8 1018.4 -9.9 -9.999 -99.9 -99.99 -9.99
2020/02/15 19:00 CST    0.84   2.30   14   95   16  60.1  58.8 1018.4 -9.9 -9.999 -99.9 -99.99 -9.99
2020/02/15 19:06 CST    0.85   2.30   15   98   17  60.1  58.8 1018.5 -9.9 -9.999 -99.9 -99.99 -9.99
2020/02/15 19:12 CST    0.85   2.32   15   99   17  60.1  58.8 1018.7 -9.9 -9.999 -99.9 -99.99 -9.99
2020/02/15 19:18 CST    0.85   2.33   14   96   16  60.1  58.8 1018.9 -9.9 -9.999 -99.9 -99.99 -9.99
2020/02/15 19:24 CST    0.86   2.36   14   96   16  60.1  58.8 1019.0 -9.9 -9.999 -99.9 -99.99 -9.99
2020/02/15 19:30 CST    0.86   2.35   14   98   15  60.3  58.8 1019.2 -9.9 -9.999 -99.9 -99.99 -9.99
2020/02/15 19:36 CST    0.86   2.36   13   98   16  60.3  58.8 1019.2 -9.9 -9.999 -99.9 -99.99 -9.99
2020/02/15 19:42 CST    0.86   2.38   13   96   15  60.3  58.8 1019.1 -9.9 -9.999 -99.9 -99.99 -9.99
2020/02/15 19:48 CST    0.87   2.35   13   95   14  60.3  58.8 1019.1 -9.9 -9.999 -99.9 -99.99 -9.99
2020/02/15 19:54 CST    0.87   2.35   14   96   16  60.3  58.8 1019.0 -9.9 -9.999 -99.9 -99.99 -9.99
2020/02/15 20:00 CST    0.87   2.36   13   96   16  60.3  58.8 1019.0 -9.9 -9.999 -99.9 -99.99 -9.99
2020/02/15 20:06 CST    0.87   2.32   13   96   16  60.4  58.8 1018.9 -9.9 -9.999 -99.9 -99.99 -9.99
2020/02/15 20:12 CST    0.87   2.37   14   96   15  60.4  58.8 1018.8 -9.9 -9.999 -99.9 -99.99 -9.99
2020/02/15 20:18 CST    0.86   2.36   14  100   16  60.4  58.8 1018.8 -9.9 -9.999 -99.9 -99.99 -9.99
2020/02/15 20:24 CST    0.86   2.35   14   99   16  60.6  58.8 1018.8 -9.9 -9.999 -99.9 -99.99 -9.99
2020/02/15 20:30 CST    0.86   2.32   14  101   15  60.6  58.8 1018.9 -9.9 -9.999 -99.9 -99.99 -9.99
2020/02/15 20:36 CST    0.85   2.32   15  102   17  60.8  58.8 1018.6 -9.9 -9.999 -99.9 -99.99 -9.99
2020/02/15 20:42 CST    0.85   2.33   16   99   18  60.8  58.8 1018.5 -9.9 -9.999 -99.9 -99.99 -9.99
2020/02/15 20:48 CST    0.84   2.31   14   99   17  60.8  58.8 1018.5 -9.9 -9.999 -99.9 -99.99 -9.99
2020/02/15 20:54 CST    0.84   2.32   13  100   16  60.8  58.8 1018.5 -9.9 -9.999 -99.9 -99.99 -9.99
2020/02/15 21:00 CST    0.83   2.34   12  101   15  60.8  58.8 1018.6 -9.9 -9.999 -99.9 -99.99 -9.99
2020/02/15 21:06 CST    0.82   2.34   12  102   14  60.6  58.8 1018.7 -9.9 -9.999 -99.9 -99.99 -9.99
2020/02/15 21:12 CST    0.81   2.31   13  104   15  60.8  58.8 1018.7 -9.9 -9.999 -99.9 -99.99 -9.99
2020/02/15 21:18 CST    0.80   2.22   14  103   15  60.8  58.8 1018.5 -9.9 -9.999 -99.9 -99.99 -9.99
2020/02/15 21:24 CST    0.79   2.29   13  104   15  60.8  58.8 1018.5 -9.9 -9.999 -99.9 -99.99 -9.99
2020/02/15 21:30 CST    0.78   2.28   13  104   14  60.8  58.8 1018.5 -9.9 -9.999 -99.9 -99.99 -9.99
2020/02/15 21:36 CST    0.76   2.27   11  107   13  60.8  58.8 1018.7 -9.9 -9.999 -99.9 -99.99 -9.99
2020/02/15 21:42 CST    0.75   2.26   10  103   12  61.0  58.8 1018.8 -9.9 -9.999 -99.9 -99.99 -9.99
2020/02/15 21:48 CST    0.73   2.21    9  102   10  61.0  58.8 1018.7 -9.9 -9.999 -99.9 -99.99 -9.99
2020/02/15 21:54 CST    0.72   2.20    8  102    9  61.0  58.8 1018.8 -9.9 -9.999 -99.9 -99.99 -9.99
2020/02/15 22:00 CST    0.70   2.16    8   99    8  61.0  58.8 1018.9 -9.9 -9.999 -99.9 -99.99 -9.99
2020/02/15 22:06 CST    0.68   2.12    8   99    8  61.0  58.8 1018.9 -9.9 -9.999 -99.9 -99.99 -9.99
2020/02/15 22:12 CST    0.66   2.08    8  103    8  61.2  58.8 1018.9 -9.9 -9.999 -99.9 -99.99 -9.99
2020/02/15 22:18 CST    0.64   2.11    7  106    8  61.0  58.8 1018.8 -9.9 -9.999 -99.9 -99.99 -9.99
2020/02/15 22:24 CST    0.62   2.07    7  110    8  61.0  58.8 1018.6 -9.9 -9.999 -99.9 -99.99 -9.99
2020/02/15 22:30 CST    0.60   2.04    8  109    9  61.0  58.8 1018.3 -9.9 -9.999 -99.9 -99.99 -9.99
2020/02/15 22:36 CST    0.57   2.02    7  111    9  61.0  58.8 1018.3 -9.9 -9.999 -99.9 -99.99 -9.99
2020/02/15 22:42 CST    0.55   1.99    6  110    8  61.0  58.8 1018.2 -9.9 -9.999 -99.9 -99.99 -9.99
2020/02/15 22:48 CST    0.52   1.97    7  110    9  61.2  58.8 1018.1 -9.9 -9.999 -99.9 -99.99 -9.99
2020/02/15 22:54 CST    0.50   1.91    7  109    8  61.2  58.8 1018.1 -9.9 -9.999 -99.9 -99.99 -9.99
2020/02/15 23:00 CST    0.47   1.91    8  106    8  61.2  58.8 1018.0 -9.9 -9.999 -99.9 -99.99 -9.99
2020/02/15 23:06 CST    0.44   1.89    7  103    9  61.0  59.0 1017.9 -9.9 -9.999 -99.9 -99.99 -9.99
2020/02/15 23:12 CST    0.41   1.85    8   99    8  61.0  59.0 1017.7 -9.9 -9.999 -99.9 -99.99 -9.99
2020/02/15 23:18 CST    0.39   1.80    8  103    8  61.2  59.0 1017.7 -9.9 -9.999 -99.9 -99.99 -9.99
2020/02/15 23:24 CST    0.36   1.74    8  109    8  61.0  59.0 1017.8 -9.9 -9.999 -99.9 -99.99 -9.99
2020/02/15 23:30 CST    0.33   1.70    7  106    9  61.0  59.0 1017.7 -9.9 -9.999 -99.9 -99.99 -9.99
2020/02/15 23:36 CST    0.30   1.72    6  102    7  60.8  59.0 1017.8 -9.9 -9.999 -99.9 -99.99 -9.99
2020/02/15 23:42 CST    0.27   1.72    4   89    6  61.0  59.0 1018.0 -9.9 -9.999 -99.9 -99.99 -9.99
2020/02/15 23:48 CST    0.24   1.57    4   90    5  61.2  59.0 1018.1 -9.9 -9.999 -99.9 -99.99 -9.99
2020/02/15 23:54 CST    0.21   1.60    5   86    5  61.3  59.0 1018.1 -9.9 -9.999 -99.9 -99.99 -9.99
2020/02/16 00:00 CST    0.18   1.58    5   99    5  61.5  59.0 1018.1 -9.9 -9.999 -99.9 -99.99 -9.99
2020/02/16 00:06 CST    0.15   1.52    5  104    5  61.7  59.0 1018.0 -9.9 -9.999 -99.9 -99.99 -9.99
2020/02/16 00:12 CST    0.12   1.50    6  104    6  61.7  59.0 1017.8 -9.9 -9.999 -99.9 -99.99 -9.99
2020/02/16 00:18 CST    0.09   1.51    6  106    6  61.9  59.2 1017.8 -9.9 -9.999 -99.9 -99.99 -9.99
2020/02/16 00:24 CST    0.06   1.45    7  105    7  62.1  59.2 1017.7 -9.9 -9.999 -99.9 -99.99 -9.99
2020/02/16 00:30 CST    0.03   1.42    5   94    7  62.1  59.0 1017.6 -9.9 -9.999 -99.9 -99.99 -9.99
2020/02/16 00:36 CST   -0.00   1.41    4   85    5  62.1  59.0 1017.8 -9.9 -9.999 -99.9 -99.99 -9.99
2020/02/16 00:42 CST   -0.03   1.36    3   60    4  61.9  59.2 1017.8 -9.9 -9.999 -99.9 -99.99 -9.99
2020/02/16 00:48 CST   -0.06   1.29    2   42    3  61.7  59.2 1017.7 -9.9 -9.999 -99.9 -99.99 -9.99
2020/02/16 00:54 CST   -0.09   1.30    2   39    3  62.1  59.2 1017.7 -9.9 -9.999 -99.9 -99.99 -9.99
2020/02/16 01:00 CST   -0.11   1.27    3   33    3  62.2  59.2 1017.6 -9.9 -9.999 -99.9 -99.99 -9.99
2020/02/16 01:06 CST   -0.14   1.24    3   40    4  62.6  59.2 1017.4 -9.9 -9.999 -99.9 -99.99 -9.99
2020/02/16 01:12 CST   -0.17   1.19    4   55    4  62.6  59.2 1017.2 -9.9 -9.999 -99.9 -99.99 -9.99
2020/02/16 01:18 CST   -0.19   1.16    3   57    4  63.1  59.2 1017.4 -9.9 -9.999 -99.9 -99.99 -9.99
2020/02/16 01:24 CST   -0.21   1.15    4   83    4  63.9  59.2 1017.3 -9.9 -9.999 -99.9 -99.99 -9.99
2020/02/16 01:30 CST   -0.24   1.11    4   84    4  63.7  59.2 1017.1 -9.9 -9.999 -99.9 -99.99 -9.99
2020/02/16 01:36 CST   -0.26   1.07    3   80    4  63.3  59.2 1017.1 -9.9 -9.999 -99.9 -99.99 -9.99
2020/02/16 01:42 CST   -0.28   1.04    3   59    3  63.3  59.2 1017.2 -9.9 -9.999 -99.9 -99.99 -9.99
2020/02/16 01:48 CST   -0.30   1.02    2   60    3  63.5  59.2 1017.1 -9.9 -9.999 -99.9 -99.99 -9.99
2020/02/16 01:54 CST   -0.32   1.00    2   70    3  63.3  59.2 1016.9 -9.9 -9.999 -99.9 -99.99 -9.99
2020/02/16 02:00 CST   -0.34   0.97    3   75    3  63.3  59.2 1016.8 -9.9 -9.999 -99.9 -99.99 -9.99
2020/02/16 02:06 CST   -0.35   0.95    3   80    3  63.3  59.2 1016.6 -9.9 -9.999 -99.9 -99.99 -9.99
2020/02/16 02:12 CST   -0.37   0.93    3   81    4  63.3  59.2 1016.5 -9.9 -9.999 -99.9 -99.99 -9.99
2020/02/16 02:18 CST   -0.38   0.92    3   86    3  63.3  59.2 1016.5 -9.9 -9.999 -99.9 -99.99 -9.99
2020/02/16 02:24 CST   -0.40   0.93    3   78    3  63.3  59.2 1016.5 -9.9 -9.999 -99.9 -99.99 -9.99
2020/02/16 02:30 CST   -0.41   0.93    3   58    3  63.3  59.2 1016.5 -9.9 -9.999 -99.9 -99.99 -9.99
2020/02/16 02:36 CST   -0.42   0.91    3   23    3  63.3  59.2 1016.5 -9.9 -9.999 -99.9 -99.99 -9.99
2020/02/16 02:42 CST   -0.43   0.87    2   36    3  63.5  59.2 1016.3 -9.9 -9.999 -99.9 -99.99 -9.99
2020/02/16 02:48 CST   -0.44   0.86    2   58    3  63.5  59.2 1016.1 -9.9 -9.999 -99.9 -99.99 -9.99
2020/02/16 02:54 CST   -0.45   0.86    3   64    3  63.7  59.2 1016.0 -9.9 -9.999 -99.9 -99.99 -9.99
2020/02/16 03:00 CST   -0.46   0.86    1   33    3  63.3  59.2 1016.3 -9.9 -9.999 -99.9 -99.99 -9.99
2020/02/16 03:06 CST   -0.46   0.87    2  349    3  63.7  59.2 1016.2 -9.9 -9.999 -99.9 -99.99 -9.99
2020/02/16 03:12 CST   -0.47   0.87    3  353    4  64.0  59.2 1016.0 -9.9 -9.999 -99.9 -99.99 -9.99
2020/02/16 03:18 CST   -0.47   0.87    4    0    4  64.4  59.2 1016.0 -9.9 -9.999 -99.9 -99.99 -9.99
2020/02/16 03:24 CST   -0.47   0.83    4    4    4  65.3  59.2 1016.0 -9.9 -9.999 -99.9 -99.99 -9.99
2020/02/16 03:30 CST   -0.48   0.79    4  347    4  65.3  59.2 1015.8 -9.9 -9.999 -99.9 -99.99 -9.99
2020/02/16 03:36 CST   -0.48   0.77    5  336    5  65.5  59.2 1015.9 -9.9 -9.999 -99.9 -99.99 -9.99
2020/02/16 03:42 CST   -0.48   0.76    5  330    6  65.1  59.0 1016.0 -9.9 -9.999 -99.9 -99.99 -9.99
2020/02/16 03:48 CST   -0.48   0.76    5  335    6  64.6  59.0 1016.0 -9.9 -9.999 -99.9 -99.99 -9.99
2020/02/16 03:54 CST   -0.47   0.77    4  345    5  64.6  59.0 1015.9 -9.9 -9.999 -99.9 -99.99 -9.99
2020/02/16 04:00 CST   -0.47   0.77    4  350    5  64.4  59.0 1016.0 -9.9 -9.999 -99.9 -99.99 -9.99
2020/02/16 04:06 CST   -0.47   0.79    4    1    4  63.7  59.0 1016.0 -9.9 -9.999 -99.9 -99.99 -9.99
2020/02/16 04:12 CST   -0.46   0.78    3    7    4  63.5  59.0 1015.9 -9.9 -9.999 -99.9 -99.99 -9.99
2020/02/16 04:18 CST   -0.45   0.80    0   13    2  63.5  59.0 1015.9 -9.9 -9.999 -99.9 -99.99 -9.99
2020/02/16 04:24 CST   -0.45   0.80    1   56    1  63.7  59.0 1015.9 -9.9 -9.999 -99.9 -99.99 -9.99
2020/02/16 04:30 CST   -0.44   0.80    3    8    4  64.0  59.0 1015.9 -9.9 -9.999 -99.9 -99.99 -9.99
2020/02/16 04:36 CST   -0.43   0.82    4  345    5  64.0  59.0 1015.9 -9.9 -9.999 -99.9 -99.99 -9.99
2020/02/16 04:42 CST   -0.42   0.84    4  348    5  63.7  59.0 1015.8 -9.9 -9.999 -99.9 -99.99 -9.99
2020/02/16 04:48 CST   -0.41   0.82    4  343    4  63.3  59.0 1015.7 -9.9 -9.999 -99.9 -99.99 -9.99
2020/02/16 04:54 CST   -0.39   0.83    5  352    5  63.3  59.0 1015.8 -9.9 -9.999 -99.9 -99.99 -9.99
2020/02/16 05:00 CST   -0.38   0.85    7  344    8  63.3  59.0 1015.9 -9.9 -9.999 -99.9 -99.99 -9.99
2020/02/16 05:06 CST   -0.37   0.85    6  349    8  63.3  59.0 1015.8 -9.9 -9.999 -99.9 -99.99 -9.99
2020/02/16 05:12 CST   -0.35   0.88    5  350    7  62.8  59.0 1015.6 -9.9 -9.999 -99.9 -99.99 -9.99
2020/02/16 05:18 CST   -0.33   0.89    3  351    5  62.2  59.0 1015.7 -9.9 -9.999 -99.9 -99.99 -9.99
2020/02/16 05:24 CST   -0.32   0.90    2  359    3  62.1  59.0 1015.7 -9.9 -9.999 -99.9 -99.99 -9.99
2020/02/16 05:30 CST   -0.30   0.94    3    1    3  61.9  59.0 1015.7 -9.9 -9.999 -99.9 -99.99 -9.99
2020/02/16 05:36 CST   -0.28   0.97    3  353    4  61.7  59.0 1015.9 -9.9 -9.999 -99.9 -99.99 -9.99
2020/02/16 05:42 CST   -0.26   0.99    3    6    3  62.1  59.0 1015.8 -9.9 -9.999 -99.9 -99.99 -9.99
2020/02/16 05:48 CST   -0.23   0.99    2   19    3  62.1  59.0 1015.8 -9.9 -9.999 -99.9 -99.99 -9.99
2020/02/16 05:54 CST   -0.21   1.01    1   33    2  61.9  59.0 1015.9 -9.9 -9.999 -99.9 -99.99 -9.99
2020/02/16 06:00 CST   -0.19   1.04    2   20    3  61.9  59.0 1016.0 -9.9 -9.999 -99.9 -99.99 -9.99
2020/02/16 06:06 CST   -0.16   1.06    3   12    3  61.9  59.0 1016.0 -9.9 -9.999 -99.9 -99.99 -9.99
2020/02/16 06:12 CST   -0.14   1.10    4    8    4  61.9  59.0 1016.1 -9.9 -9.999 -99.9 -99.99 -9.99
2020/02/16 06:18 CST   -0.11   1.13    4    6    4  61.9  59.0 1016.1 -9.9 -9.999 -99.9 -99.99 -9.99
2020/02/16 06:24 CST   -0.08   1.17    5    1    5  61.9  59.0 1016.1 -9.9 -9.999 -99.9 -99.99 -9.99
2020/02/16 06:30 CST   -0.06   1.22    6    7    6  62.1  59.0 1016.2 -9.9 -9.999 -99.9 -99.99 -9.99
2020/02/16 06:36 CST   -0.03   1.23    7  349    8  62.1  59.0 1016.4 -9.9 -9.999 -99.9 -99.99 -9.99
2020/02/16 06:42 CST    0.00   1.27    5  346    8  61.9  59.0 1016.4 -9.9 -9.999 -99.9 -99.99 -9.99
2020/02/16 06:48 CST    0.03   1.29    4  342    5  61.9  59.0 1016.5 -9.9 -9.999 -99.9 -99.99 -9.99
2020/02/16 06:54 CST    0.06   1.31    4  354    5  61.7  59.0 1016.5 -9.9 -9.999 -99.9 -99.99 -9.99
2020/02/16 07:00 CST    0.09   1.37    4    2    5  61.3  59.0 1016.4 -9.9 -9.999 -99.9 -99.99 -9.99
2020/02/16 07:06 CST    0.12   1.38    3   14    4  61.3  59.0 1016.5 -9.9 -9.999 -99.9 -99.99 -9.99
2020/02/16 07:12 CST    0.16   1.37    3   23    3  61.2  59.2 1016.6 -9.9 -9.999 -99.9 -99.99 -9.99
2020/02/16 07:18 CST    0.19   1.41    3   15    4  61.2  59.2 1016.8 -9.9 -9.999 -99.9 -99.99 -9.99
2020/02/16 07:24 CST    0.22   1.43    4    5    5  61.0  59.2 1016.9 -9.9 -9.999 -99.9 -99.99 -9.99
2020/02/16 07:30 CST    0.25   1.45    4    9    5  60.8  59.2 1017.0 -9.9 -9.999 -99.9 -99.99 -9.99
2020/02/16 07:36 CST    0.28   1.47    2   27    4  60.8  59.2 1016.9 -9.9 -9.999 -99.9 -99.99 -9.99
2020/02/16 07:42 CST    0.31   1.48    1   21    2  61.0  59.2 1017.0 -9.9 -9.999 -99.9 -99.99 -9.99
2020/02/16 07:48 CST    0.35   1.51    4    5    4  61.2  59.2 1017.1 -9.9 -9.999 -99.9 -99.99 -9.99
2020/02/16 07:54 CST    0.38   1.54    5   13    5  61.2  59.2 1017.2 -9.9 -9.999 -99.9 -99.99 -9.99
2020/02/16 08:00 CST    0.41   1.54    5    2    5  61.3  59.2 1017.2 -9.9 -9.999 -99.9 -99.99 -9.99
2020/02/16 08:06 CST    0.44   1.55    5    3    5  61.5  59.2 1017.3 -9.9 -9.999 -99.9 -99.99 -9.99
2020/02/16 08:12 CST    0.47   1.56    3    6    5  61.2  59.2 1017.4 -9.9 -9.999 -99.9 -99.99 -9.99
2020/02/16 08:18 CST    0.50   1.59    4    8    4  61.2  59.2 1017.5 -9.9 -9.999 -99.9 -99.99 -9.99
2020/02/16 08:24 CST    0.53   1.60    6    2    7  61.3  59.2 1017.6 -9.9 -9.999 -99.9 -99.99 -9.99
2020/02/16 08:30 CST    0.56   1.64    5  355    6  61.0  59.2 1017.7 -9.9 -9.999 -99.9 -99.99 -9.99
2020/02/16 08:36 CST    0.59   1.66    5    3    6  61.0  59.2 1017.6 -9.9 -9.999 -99.9 -99.99 -9.99
2020/02/16 08:42 CST    0.62   1.66    5   13    6  61.0  59.2 1017.6 -9.9 -9.999 -99.9 -99.99 -9.99
2020/02/16 08:48 CST    0.65   1.72    4   26    6  61.0  59.2 1017.6 -9.9 -9.999 -99.9 -99.99 -9.99
2020/02/16 08:54 CST    0.68   1.73    4   31    5  61.2  59.2 1017.6 -9.9 -9.999 -99.9 -99.99 -9.99
2020/02/16 09:00 CST    0.71   1.72    4   47    5  61.0  59.2 1017.5 -9.9 -9.999 -99.9 -99.99 -9.99
2020/02/16 09:06 CST    0.73   1.73    4   48    5  61.0  59.2 1017.5 -9.9 -9.999 -99.9 -99.99 -9.99
2020/02/16 09:12 CST    0.76   1.74    4   52    5  61.0  59.2 1017.6 -9.9 -9.999 -99.9 -99.99 -9.99
2020/02/16 09:18 CST    0.78   1.79    5   42    5  61.0  59.2 1017.6 -9.9 -9.999 -99.9 -99.99 -9.99
2020/02/16 09:24 CST    0.81   1.78    5   21    5  61.0  59.2 1017.7 -9.9 -9.999 -99.9 -99.99 -9.99
2020/02/16 09:30 CST    0.83   1.76    6   22    6  61.0  59.2 1017.7 -9.9 -9.999 -99.9 -99.99 -9.99
2020/02/16 09:36 CST    0.85   1.76    6   37    6  60.8  59.2 1017.6 -9.9 -9.999 -99.9 -99.99 -9.99
2020/02/16 09:42 CST    0.88   1.77    6   34    7  60.8  59.2 1017.6 -9.9 -9.999 -99.9 -99.99 -9.99
2020/02/16 09:48 CST    0.90   1.81    4   37    6  60.8  59.2 1017.5 -9.9 -9.999 -99.9 -99.99 -9.99
2020/02/16 09:54 CST    0.92   1.80    5   50    6  60.6  59.2 1017.3 -9.9 -9.999 -99.9 -99.99 -9.99
2020/02/16 10:00 CST    0.94   1.82    5   50    6  60.4  59.2 1017.4 -9.9 -9.999 -99.9 -99.99 -9.99
2020/02/16 10:06 CST    0.96   1.86    5   54    5  60.3  59.2 1017.6 -9.9 -9.999 -99.9 -99.99 -9.99
2020/02/16 10:12 CST    0.98   1.89    5   63    5  60.1  59.2 1017.5 -9.9 -9.999 -99.9 -99.99 -9.99
2020/02/16 10:18 CST    0.99   1.91    6   47    6  60.3  59.2 1017.6 -9.9 -9.999 -99.9 -99.99 -9.99
2020/02/16 10:24 CST    1.01   1.94    6   58    6  60.1  59.2 1017.5 -9.9 -9.999 -99.9 -99.99 -9.99
2020/02/16 10:30 CST    1.03   1.95    5   64    6  60.3  59.2 1017.5 -9.9 -9.999 -99.9 -99.99 -9.99
2020/02/16 10:36 CST    1.04   1.96    5   69    6  60.4  59.4 1017.4 -9.9 -9.999 -99.9 -99.99 -9.99
2020/02/16 10:42 CST    1.05   1.99    5   69    5  60.4  59.4 1017.3 -9.9 -9.999 -99.9 -99.99 -9.99
2020/02/16 10:48 CST    1.07   2.01    4   76    5  60.3  59.4 1017.2 -9.9 -9.999 -99.9 -99.99 -9.99
2020/02/16 10:54 CST    1.08   1.99    4   75    5  60.4  59.4 1017.3 -9.9 -9.999 -99.9 -99.99 -9.99
2020/02/16 11:00 CST    1.09   2.00    5   81    5  60.4  59.4 1017.3 -9.9 -9.999 -99.9 -99.99 -9.99
2020/02/16 11:06 CST    1.10   2.00    5   80    5  60.4  59.4 1017.3 -9.9 -9.999 -99.9 -99.99 -9.99
2020/02/16 11:12 CST    1.11   2.00    5   85    6  60.4  59.4 1017.3 -9.9 -9.999 -99.9 -99.99 -9.99
2020/02/16 11:18 CST    1.12   2.01    6   87    6  60.4  59.4 1017.1 -9.9 -9.999 -99.9 -99.99 -9.99
2020/02/16 11:24 CST    1.12   2.01    5   87    6  60.4  59.4 1017.0 -9.9 -9.999 -99.9 -99.99 -9.99
2020/02/16 11:30 CST    1.13   2.02    5   90    6  60.4  59.5 1016.8 -9.9 -9.999 -99.9 -99.99 -9.99
2020/02/16 11:36 CST    1.14   2.03    5   95    5  60.6  59.5 1016.7 -9.9 -9.999 -99.9 -99.99 -9.99
2020/02/16 11:42 CST    1.14   2.05    5   91    5  60.6  59.5 1016.7 -9.9 -9.999 -99.9 -99.99 -9.99
2020/02/16 11:48 CST    1.15   2.04    5   81    5  60.6  59.5 1016.7 -9.9 -9.999 -99.9 -99.99 -9.99
2020/02/16 11:54 CST    1.15   2.04    4   73    5  60.8  59.5 1016.5 -9.9 -9.999 -99.9 -99.99 -9.99
2020/02/16 12:00 CST    1.15   2.05    3   73    5  61.0  59.5 1016.4 -9.9 -9.999 -99.9 -99.99 -9.99
2020/02/16 12:06 CST    1.15   2.04    4   61    5  61.0  59.5 1016.4 -9.9 -9.999 -99.9 -99.99 -9.99
2020/02/16 12:12 CST    1.15   2.04    5   80    6  61.0  59.5 1016.3 -9.9 -9.999 -99.9 -99.99 -9.99
2020/02/16 12:18 CST    1.15   2.02    6   81    6  61.0  59.5 1016.3 -9.9 -9.999 -99.9 -99.99 -9.99
2020/02/16 12:24 CST    1.15   2.01    5   93    6  61.0  59.5 1016.2 -9.9 -9.999 -99.9 -99.99 -9.99
2020/02/16 12:30 CST    1.15   1.99    4   95    5  61.2  59.5 1016.1 -9.9 -9.999 -99.9 -99.99 -9.99
2020/02/16 12:36 CST    1.15   1.94    4   91    5  61.2  59.5 1016.0 -9.9 -9.999 -99.9 -99.99 -9.99
2020/02/16 12:42 CST    1.15   1.93    4   83    4  61.2  59.5 1015.9 -9.9 -9.999 -99.9 -99.99 -9.99
2020/02/16 12:48 CST    1.14   1.93    4   96    4  61.2  59.5 1015.8 -9.9 -9.999 -99.9 -99.99 -9.99
2020/02/16 12:54 CST    1.14   1.89    5  112    5  61.2  59.7 1015.7 -9.9 -9.999 -99.9 -99.99 -9.99
2020/02/16 13:00 CST    1.14   1.92    4   98    5  61.3  59.7 1015.6 -9.9 -9.999 -99.9 -99.99 -9.99
2020/02/16 13:06 CST    1.13   1.91    4  106    4  61.3  59.7 1015.5 -9.9 -9.999 -99.9 -99.99 -9.99
2020/02/16 13:12 CST    1.13   1.89    3  140    4  61.3  59.9 1015.5 -9.9 -9.999 -99.9 -99.99 -9.99
2020/02/16 13:18 CST    1.13   1.89    4  126    4  61.0  59.9 1015.3 -9.9 -9.999 -99.9 -99.99 -9.99
2020/02/16 13:24 CST    1.12   1.89    5  112    5  61.0  60.1 1015.2 -9.9 -9.999 -99.9 -99.99 -9.99
2020/02/16 13:30 CST    1.12   1.85    5  112    5  61.0  60.1 1015.0 -9.9 -9.999 -99.9 -99.99 -9.99
2020/02/16 13:36 CST    1.11   1.85    5  114    6  60.8  60.3 1014.8 -9.9 -9.999 -99.9 -99.99 -9.99
2020/02/16 13:42 CST    1.11   1.87    7  108    7  61.0  60.3 1014.8 -9.9 -9.999 -99.9 -99.99 -9.99
2020/02/16 13:48 CST    1.10   1.90    7   99    7  61.2  60.3 1014.8 -9.9 -9.999 -99.9 -99.99 -9.99
2020/02/16 13:54 CST    1.10   1.89    7  104    7  61.2  60.3 1014.6 -9.9 -9.999 -99.9 -99.99 -9.99
2020/02/16 14:00 CST    1.09   1.85    7  129    7  61.0  60.4 1014.7 -9.9 -9.999 -99.9 -99.99 -9.99
2020/02/16 14:06 CST    1.09   1.83    7  137    7  61.0  60.4 1014.7 -9.9 -9.999 -99.9 -99.99 -9.99
2020/02/16 14:12 CST    1.08   1.76    8  134    8  61.0  60.4 1014.4 -9.9 -9.999 -99.9 -99.99 -9.99
2020/02/16 14:18 CST    1.08   1.79    7  144    8  61.0  60.4 1014.5 -9.9 -9.999 -99.9 -99.99 -9.99
2020/02/16 14:24 CST    1.07   1.81    7  144    8  61.0  60.6 1014.5 -9.9 -9.999 -99.9 -99.99 -9.99
2020/02/16 14:30 CST    1.07   1.79    8  144    8  61.0  60.6 1014.3 -9.9 -9.999 -99.9 -99.99 -9.99
2020/02/16 14:36 CST    1.06   1.79    8  144    8  61.0  60.6 1014.3 -9.9 -9.999 -99.9 -99.99 -9.99
2020/02/16 14:42 CST    1.06   1.80    8  136    9  61.0  60.6 1014.1 -9.9 -9.999 -99.9 -99.99 -9.99
2020/02/16 14:48 CST    1.05   1.84    9  141    9  61.0  60.8 1014.0 -9.9 -9.999 -99.9 -99.99 -9.99
2020/02/16 14:54 CST    1.05   1.85    8  138    9  61.0  60.8 1014.0 -9.9 -9.999 -99.9 -99.99 -9.99
2020/02/16 15:00 CST    1.04   1.82    8  133    9  61.0  60.8 1013.9 -9.9 -9.999 -99.9 -99.99 -9.99
2020/02/16 15:06 CST    1.03   1.79    8  136    8  61.2  60.8 1014.0 -9.9 -9.999 -99.9 -99.99 -9.99
2020/02/16 15:12 CST    1.03   1.81    7  141    8  61.3  60.8 1013.9 -9.9 -9.999 -99.9 -99.99 -9.99
2020/02/16 15:18 CST    1.02   1.80    8  140    9  61.3  60.8 1013.8 -9.9 -9.999 -99.9 -99.99 -9.99
2020/02/16 15:24 CST    1.02   1.81    8  134    9  61.2  60.8 1013.7 -9.9 -9.999 -99.9 -99.99 -9.99
2020/02/16 15:30 CST    1.01   1.84    8  126    9  61.2  60.6 1013.7 -9.9 -9.999 -99.9 -99.99 -9.99
2020/02/16 15:36 CST    1.01   1.84   10  126   11  61.3  60.6 1013.7 -9.9 -9.999 -99.9 -99.99 -9.99
2020/02/16 15:42 CST    1.00   1.83   11  127   13  61.2  60.6 1013.6 -9.9 -9.999 -99.9 -99.99 -9.99
2020/02/16 15:48 CST    0.99   1.82   13  134   15  61.2  60.8 1013.4 -9.9 -9.999 -99.9 -99.99 -9.99
2020/02/16 15:54 CST    0.99   1.82   12  133   15  61.0  60.8 1013.5 -9.9 -9.999 -99.9 -99.99 -9.99
2020/02/16 16:00 CST    0.98   1.82   15  135   16  60.6  60.8 1013.8 -9.9 -9.999 -99.9 -99.99 -9.99
2020/02/16 16:06 CST    0.98   1.82   14  141   16  60.6  60.8 1013.8 -9.9 -9.999 -99.9 -99.99 -9.99
2020/02/16 16:12 CST    0.97   1.81   13  134   15  60.4  61.0 1013.9 -9.9 -9.999 -99.9 -99.99 -9.99
2020/02/16 16:18 CST    0.96   1.80   13  129   14  60.6  61.0 1013.8 -9.9 -9.999 -99.9 -99.99 -9.99
2020/02/16 16:24 CST    0.96   1.80   13  129   14  60.6  61.2 1013.9 -9.9 -9.999 -99.9 -99.99 -9.99
2020/02/16 16:30 CST    0.95   1.80   13  131   14  60.4  61.2 1014.0 -9.9 -9.999 -99.9 -99.99 -9.99
2020/02/16 16:36 CST    0.94   1.84   11  134   13  60.4  61.2 1014.0 -9.9 -9.999 -99.9 -99.99 -9.99
2020/02/16 16:42 CST    0.94   1.83   11  139   14  60.4  61.2 1014.1 -9.9 -9.999 -99.9 -99.99 -9.99
2020/02/16 16:48 CST    0.93   1.85   12  143   14  60.3  61.2 1014.2 -9.9 -9.999 -99.9 -99.99 -9.99
2020/02/16 16:54 CST    0.93   1.87   11  133   13  60.3  61.2 1014.2 -9.9 -9.999 -99.9 -99.99 -9.99
2020/02/16 17:00 CST    0.92   1.89   11  126   12  60.3  61.2 1014.3 -9.9 -9.999 -99.9 -99.99 -9.99
2020/02/16 17:06 CST    0.91   1.86   10  129   12  60.4  61.2 1014.3 -9.9 -9.999 -99.9 -99.99 -9.99
2020/02/16 17:12 CST    0.91   1.86   10  130   12  60.4  61.2 1014.2 -9.9 -9.999 -99.9 -99.99 -9.99
2020/02/16 17:18 CST    0.90   1.86   10  131   12  60.4  61.2 1014.2 -9.9 -9.999 -99.9 -99.99 -9.99
2020/02/16 17:24 CST    0.90   1.88   10  135   11  60.4  61.2 1014.3 -9.9 -9.999 -99.9 -99.99 -9.99
2020/02/16 17:30 CST    0.89   1.88   10  137   11  60.4  61.2 1014.2 -9.9 -9.999 -99.9 -99.99 -9.99
2020/02/16 17:36 CST    0.89   1.88   11  144   12  60.6  61.2 1014.1 -9.9 -9.999 -99.9 -99.99 -9.99
2020/02/16 17:42 CST    0.89   1.88   11  141   12  60.6  61.2 1014.3 -9.9 -9.999 -99.9 -99.99 -9.99
2020/02/16 17:48 CST    0.88   1.88   11  144   12  60.4  61.2 1014.1 -9.9 -9.999 -99.9 -99.99 -9.99
2020/02/16 17:54 CST    0.88   1.90    9  144   11  60.6  61.3 1014.2 -9.9 -9.999 -99.9 -99.99 -9.99
2020/02/16 18:00 CST    0.88   1.89    9  139   11  60.4  61.3 1014.1 -9.9 -9.999 -99.9 -99.99 -9.99
2020/02/16 18:06 CST    0.88   1.89   11  147   12  60.6  61.3 1014.0 -9.9 -9.999 -99.9 -99.99 -9.99
2020/02/16 18:12 CST    0.87   1.88   10  144   12  60.6  61.3 1014.0 -9.9 -9.999 -99.9 -99.99 -9.99
2020/02/16 18:18 CST    0.87   1.85    9  145   11  60.6  61.3 1014.0 -9.9 -9.999 -99.9 -99.99 -9.99
2020/02/16 18:24 CST    0.87   1.84   11  148   13  60.6  61.2 1014.0 -9.9 -9.999 -99.9 -99.99 -9.99
2020/02/16 18:30 CST    0.87   1.82   11  147   12  60.6  61.2 1014.0 -9.9 -9.999 -99.9 -99.99 -9.99
2020/02/16 18:36 CST    0.87   1.83   11  153   12  60.6  61.0 1014.0 -9.9 -9.999 -99.9 -99.99 -9.99
2020/02/16 18:42 CST    0.87   1.87   11  156   13  60.6  61.0 1014.1 -9.9 -9.999 -99.9 -99.99 -9.99
2020/02/16 18:48 CST    0.87   1.83   11  155   12  60.6  61.0 1014.0 -9.9 -9.999 -99.9 -99.99 -9.99
2020/02/16 18:54 CST    0.87   1.88   11  159   12  60.6  61.0 1014.1 -9.9 -9.999 -99.9 -99.99 -9.99
2020/02/16 19:00 CST    0.88   1.84   11  155   13  60.8  60.8 1014.1 -9.9 -9.999 -99.9 -99.99 -9.99
2020/02/16 19:06 CST    0.88   1.85   11  156   14  61.0  60.8 1014.0 -9.9 -9.999 -99.9 -99.99 -9.99
2020/02/16 19:12 CST    0.88   1.86   11  156   12  61.0  60.8 1013.9 -9.9 -9.999 -99.9 -99.99 -9.99
2020/02/16 19:18 CST    0.88   1.85   11  155   12  61.0  60.8 1013.9 -9.9 -9.999 -99.9 -99.99 -9.99
2020/02/16 19:24 CST    0.88   1.86   11  156   13  61.0  60.8 1013.9 -9.9 -9.999 -99.9 -99.99 -9.99
2020/02/16 19:30 CST    0.89   1.81   11  157   12  61.0  60.8 1014.1 -9.9 -9.999 -99.9 -99.99 -9.99
2020/02/16 19:36 CST    0.89   1.78   10  153   12  61.0  60.8 1014.0 -9.9 -9.999 -99.9 -99.99 -9.99
2020/02/16 19:42 CST    0.89   1.82   10  152   11  61.0  60.8 1014.1 -9.9 -9.999 -99.9 -99.99 -9.99
2020/02/16 19:48 CST    0.89   1.83   10  149   12  61.0  60.8 1014.1 -9.9 -9.999 -99.9 -99.99 -9.99
2020/02/16 19:54 CST    0.89   1.82    9  151   11  61.0  60.8 1014.2 -9.9 -9.999 -99.9 -99.99 -9.99
2020/02/16 20:00 CST    0.89   1.85    9  151   11  61.2  60.6 1014.3 -9.9 -9.999 -99.9 -99.99 -9.99
2020/02/16 20:06 CST    0.90   1.88    9  152   10  61.2  60.6 1014.4 -9.9 -9.999 -99.9 -99.99 -9.99
2020/02/16 20:12 CST    0.90   1.84   10  154   11  61.2  60.6 1014.2 -9.9 -9.999 -99.9 -99.99 -9.99
2020/02/16 20:18 CST    0.90   1.83   11  152   13  61.3  60.4 1014.2 -9.9 -9.999 -99.9 -99.99 -9.99
2020/02/16 20:24 CST    0.90   1.84   11  156   12  61.5  60.4 1014.3 -9.9 -9.999 -99.9 -99.99 -9.99
2020/02/16 20:30 CST    0.90   1.87   11  157   11  61.2  60.4 1014.2 -9.9 -9.999 -99.9 -99.99 -9.99
2020/02/16 20:36 CST    0.89   1.86   10  152   11  61.2  60.4 1014.1 -9.9 -9.999 -99.9 -99.99 -9.99
2020/02/16 20:42 CST    0.89   1.83   10  152   11  61.2  60.3 1014.1 -9.9 -9.999 -99.9 -99.99 -9.99
2020/02/16 20:48 CST    0.89   1.86   11  153   12  61.5  60.3 1014.2 -9.9 -9.999 -99.9 -99.99 -9.99
2020/02/16 20:54 CST    0.89   1.85   11  153   11  61.3  60.3 1014.1 -9.9 -9.999 -99.9 -99.99 -9.99
2020/02/16 21:00 CST    0.88   1.83   11  153   12  61.5  60.3 1014.1 -9.9 -9.999 -99.9 -99.99 -9.99
2020/02/16 21:06 CST    0.88   1.78    9  153   11  61.7  60.3 1014.1 -9.9 -9.999 -99.9 -99.99 -9.99
2020/02/16 21:12 CST    0.87   1.81   10  151   11  61.7  60.3 1014.1 -9.9 -9.999 -99.9 -99.99 -9.99
2020/02/16 21:18 CST    0.87   1.81   11  147   12  61.5  60.3 1014.0 -9.9 -9.999 -99.9 -99.99 -9.99
2020/02/16 21:24 CST    0.86   1.79   11  148   12  61.5  60.3 1014.0 -9.9 -9.999 -99.9 -99.99 -9.99
2020/02/16 21:30 CST    0.85   1.80   10  142   12  62.1  60.3 1013.8 -9.9 -9.999 -99.9 -99.99 -9.99
2020/02/16 21:36 CST    0.85   1.75   13  158   14  61.5  60.3 1014.1 -9.9 -9.999 -99.9 -99.99 -9.99
2020/02/16 21:42 CST    0.84   1.72   11  160   14  61.5  60.3 1014.0 -9.9 -9.999 -99.9 -99.99 -9.99
2020/02/16 21:48 CST    0.83   1.68   11  159   13  61.5  60.3 1014.0 -9.9 -9.999 -99.9 -99.99 -9.99
2020/02/16 21:54 CST    0.82   1.67   10  156   12  61.5  60.3 1014.0 -9.9 -9.999 -99.9 -99.99 -9.99
2020/02/16 22:00 CST    0.81   1.67   11  168   15  61.9  60.3 1014.1 -9.9 -9.999 -99.9 -99.99 -9.99
2020/02/16 22:06 CST    0.80   1.66   12  169   15  61.7  60.3 1014.1 -9.9 -9.999 -99.9 -99.99 -9.99
2020/02/16 22:12 CST    0.78   1.68   11  167   13  61.9  60.3 1014.0 -9.9 -9.999 -99.9 -99.99 -9.99
2020/02/16 22:18 CST    0.77   1.63   11  167   14  62.1  60.3 1014.0 -9.9 -9.999 -99.9 -99.99 -9.99
2020/02/16 22:24 CST    0.75   1.58   11  169   12  61.9  60.1 1013.9 -9.9 -9.999 -99.9 -99.99 -9.99
2020/02/16 22:30 CST    0.74   1.62   12  163   13  62.2  60.1 1013.9 -9.9 -9.999 -99.9 -99.99 -9.99
2020/02/16 22:36 CST    0.72   1.61   11  162   14  62.1  60.1 1013.9 -9.9 -9.999 -99.9 -99.99 -9.99
2020/02/16 22:42 CST    0.71   1.60    9  159   11  61.9  60.1 1013.9 -9.9 -9.999 -99.9 -99.99 -9.99
2020/02/16 22:48 CST    0.69   1.63    8  154   11  61.9  60.1 1013.9 -9.9 -9.999 -99.9 -99.99 -9.99
2020/02/16 22:54 CST    0.67   1.61    9  156   11  62.1  60.1 1013.9 -9.9 -9.999 -99.9 -99.99 -9.99
2020/02/16 23:00 CST    0.65   1.60    9  155   11  62.1  60.1 1013.9 -9.9 -9.999 -99.9 -99.99 -9.99
2020/02/16 23:06 CST    0.63   1.64    9  150   13  62.1  60.1 1013.8 -9.9 -9.999 -99.9 -99.99 -9.99
2020/02/16 23:12 CST    0.61   1.60    8  147   10  61.7  60.1 1013.9 -9.9 -9.999 -99.9 -99.99 -9.99
2020/02/16 23:18 CST    0.59   1.58    9  149   11  61.9  60.1 1013.9 -9.9 -9.999 -99.9 -99.99 -9.99
2020/02/16 23:24 CST    0.56   1.60    8  144   10  61.7  60.1 1013.9 -9.9 -9.999 -99.9 -99.99 -9.99
2020/02/16 23:30 CST    0.54   1.58    9  151   11  62.1  60.1 1013.7 -9.9 -9.999 -99.9 -99.99 -9.99
2020/02/16 23:36 CST    0.51   1.53    8  147   11  61.7  60.1 1013.8 -9.9 -9.999 -99.9 -99.99 -9.99
2020/02/16 23:42 CST    0.49   1.53    9  145   11  61.7  60.1 1013.7 -9.9 -9.999 -99.9 -99.99 -9.99
2020/02/16 23:48 CST    0.46   1.48    9  147   10  61.7  60.1 1013.5 -9.9 -9.999 -99.9 -99.99 -9.99
2020/02/16 23:54 CST    0.43   1.47   10  153   13  62.1  60.1 1013.4 -9.9 -9.999 -99.9 -99.99 -9.99
2020/02/17 00:00 CST    0.41   1.43   10  155   12  62.2  60.1 1013.4 -9.9 -9.999 -99.9 -99.99 -9.99
2020/02/17 00:06 CST    0.38   1.38   10  156   12  62.2  60.1 1013.4 -9.9 -9.999 -99.9 -99.99 -9.99
2020/02/17 00:12 CST    0.35   1.35    9  154   12  62.2  60.1 1013.3 -9.9 -9.999 -99.9 -99.99 -9.99
2020/02/17 00:18 CST    0.32   1.29    9  151   11  62.1  60.1 1013.3 -9.9 -9.999 -99.9 -99.99 -9.99
2020/02/17 00:24 CST    0.29   1.26    7  148    9  61.9  60.1 1013.3 -9.9 -9.999 -99.9 -99.99 -9.99
2020/02/17 00:30 CST    0.26   1.24    8  150   10  61.9  60.1 1013.1 -9.9 -9.999 -99.9 -99.99 -9.99
2020/02/17 00:36 CST    0.23   1.18    7  147   11  61.7  60.1 1013.1 -9.9 -9.999 -99.9 -99.99 -9.99
2020/02/17 00:42 CST    0.20   1.18    7  141   10  61.7  60.1 1013.0 -9.9 -9.999 -99.9 -99.99 -9.99
2020/02/17 00:48 CST    0.16   1.18    6  138    8  61.7  60.1 1013.0 -9.9 -9.999 -99.9 -99.99 -9.99
2020/02/17 00:54 CST    0.13   1.10    6  136    8  61.7  60.1 1012.9 -9.9 -9.999 -99.9 -99.99 -9.99
2020/02/17 01:00 CST    0.10   1.06    7  133    8  61.7  60.1 1012.9 -9.9 -9.999 -99.9 -99.99 -9.99
2020/02/17 01:06 CST    0.07   1.01    6  139    9  61.7  60.1 1012.8 -9.9 -9.999 -99.9 -99.99 -9.99
2020/02/17 01:12 CST    0.04   0.97    7  130    9  61.9  60.1 1012.8 -9.9 -9.999 -99.9 -99.99 -9.99
2020/02/17 01:18 CST    0.00   0.96    6  137    8  61.9  60.1 1012.8 -9.9 -9.999 -99.9 -99.99 -9.99
2020/02/17 01:24 CST   -0.03   0.95    7  142    9  62.2  60.1 1012.8 -9.9 -9.999 -99.9 -99.99 -9.99
2020/02/17 01:30 CST   -0.06   0.89    9  141   11  62.6  60.1 1012.7 -9.9 -9.999 -99.9 -99.99 -9.99
2020/02/17 01:36 CST   -0.09   0.85    9  143   10  62.6  60.1 1012.6 -9.9 -9.999 -99.9 -99.99 -9.99
2020/02/17 01:42 CST   -0.12   0.83    8  137   10  62.4  60.1 1012.6 -9.9 -9.999 -99.9 -99.99 -9.99
2020/02/17 01:48 CST   -0.15   0.80    8  130   10  62.1  60.1 1012.4 -9.9 -9.999 -99.9 -99.99 -9.99
2020/02/17 01:54 CST   -0.18   0.84    7  136    8  62.1  60.1 1012.3 -9.9 -9.999 -99.9 -99.99 -9.99
2020/02/17 02:00 CST   -0.21   0.75    7  127   10  61.9  60.1 1012.3 -9.9 -9.999 -99.9 -99.99 -9.99
2020/02/17 02:06 CST   -0.24   0.59    6  111    8  61.9  60.1 1012.3 -9.9 -9.999 -99.9 -99.99 -9.99
2020/02/17 02:12 CST   -0.26   0.63    4   92    7  61.2  60.1 1012.3 -9.9 -9.999 -99.9 -99.99 -9.99
2020/02/17 02:18 CST   -0.29   0.63    3   88    5  60.8  60.1 1012.2 -9.9 -9.999 -99.9 -99.99 -9.99
2020/02/17 02:24 CST   -0.31   0.64    6  127    8  62.1  60.1 1012.1 -9.9 -9.999 -99.9 -99.99 -9.99
2020/02/17 02:30 CST   -0.34   0.59    7  137    9  62.4  60.1 1012.1 -9.9 -9.999 -99.9 -99.99 -9.99
2020/02/17 02:36 CST   -0.36   0.61    8  142   11  62.4  60.1 1011.9 -9.9 -9.999 -99.9 -99.99 -9.99
2020/02/17 02:42 CST   -0.38   0.59   10  142   12  62.6  60.1 1011.8 -9.9 -9.999 -99.9 -99.99 -9.99
2020/02/17 02:48 CST   -0.40   0.54    9  144   11  62.4  60.1 1011.8 -9.9 -9.999 -99.9 -99.99 -9.99
2020/02/17 02:54 CST   -0.42   0.57   11  146   12  62.2  60.1 1011.7 -9.9 -9.999 -99.9 -99.99 -9.99
2020/02/17 03:00 CST   -0.44   0.56   11  150   13  62.4  60.1 1011.7 -9.9 -9.999 -99.9 -99.99 -9.99
2020/02/17 03:06 CST   -0.46   0.56   11  149   13  62.4  60.1 1011.6 -9.9 -9.999 -99.9 -99.99 -9.99
2020/02/17 03:12 CST   -0.48   0.52   11  149   13  62.4  60.1 1011.6 -9.9 -9.999 -99.9 -99.99 -9.99
2020/02/17 03:18 CST   -0.49   0.52   11  154   13  62.6  60.1 1011.5 -9.9 -9.999 -99.9 -99.99 -9.99
2020/02/17 03:24 CST   -0.51   0.49   11  158   13  63.0  60.1 1011.5 -9.9 -9.999 -99.9 -99.99 -9.99
2020/02/17 03:30 CST   -0.52   0.47   11  156   13  62.8  60.1 1011.5 -9.9 -9.999 -99.9 -99.99 -9.99
2020/02/17 03:36 CST   -0.53   0.47   10  153   12  62.6  60.1 1011.4 -9.9 -9.999 -99.9 -99.99 -9.99
2020/02/17 03:42 CST   -0.54   0.43    9  154   11  62.6  60.1 1011.4 -9.9 -9.999 -99.9 -99.99 -9.99
2020/02/17 03:48 CST   -0.55   0.39   10  151   11  62.6  60.1 1011.4 -9.9 -9.999 -99.9 -99.99 -9.99
2020/02/17 03:54 CST   -0.56   0.37    9  153   11  62.8  60.1 1011.4 -9.9 -9.999 -99.9 -99.99 -9.99
2020/02/17 04:00 CST   -0.57   0.38    9  152   11  62.6  60.1 1011.4 -9.9 -9.999 -99.9 -99.99 -9.99
2020/02/17 04:06 CST   -0.58   0.37    9  157   11  62.8  60.1 1011.5 -9.9 -9.999 -99.9 -99.99 -9.99
2020/02/17 04:12 CST   -0.59   0.37    8  157   11  62.8  60.1 1011.5 -9.9 -9.999 -99.9 -99.99 -9.99
2020/02/17 04:18 CST   -0.59   0.34    8  154   11  62.6  60.1 1011.5 -9.9 -9.999 -99.9 -99.99 -9.99
2020/02/17 04:24 CST   -0.60   0.38    9  151   10  62.8  60.1 1011.5 -9.9 -9.999 -99.9 -99.99 -9.99
2020/02/17 04:30 CST   -0.60   0.37    9  145   10  62.4  60.1 1011.4 -9.9 -9.999 -99.9 -99.99 -9.99
2020/02/17 04:36 CST   -0.60   0.35   10  151   11  62.8  60.1 1011.5 -9.9 -9.999 -99.9 -99.99 -9.99
2020/02/17 04:42 CST   -0.60   0.34   10  155   13  63.0  60.1 1011.5 -9.9 -9.999 -99.9 -99.99 -9.99
2020/02/17 04:48 CST   -0.60   0.36   11  159   12  63.1  60.1 1011.5 -9.9 -9.999 -99.9 -99.99 -9.99
2020/02/17 04:54 CST   -0.60   0.37   10  161   14  62.8  60.1 1011.4 -9.9 -9.999 -99.9 -99.99 -9.99
2020/02/17 05:00 CST   -0.60   0.39   10  159   12  63.1  60.1 1011.4 -9.9 -9.999 -99.9 -99.99 -9.99
2020/02/17 05:06 CST   -0.60   0.39   10  158   12  63.1  60.1 1011.4 -9.9 -9.999 -99.9 -99.99 -9.99
2020/02/17 05:12 CST   -0.59   0.39    9  158   11  63.1  60.1 1011.4 -9.9 -9.999 -99.9 -99.99 -9.99
2020/02/17 05:18 CST   -0.59   0.41    9  156   11  63.3  60.1 1011.3 -9.9 -9.999 -99.9 -99.99 -9.99
2020/02/17 05:24 CST   -0.58   0.40    9  158   11  63.3  60.1 1011.3 -9.9 -9.999 -99.9 -99.99 -9.99
2020/02/17 05:30 CST   -0.57   0.42    9  158   11  63.5  60.1 1011.4 -9.9 -9.999 -99.9 -99.99 -9.99
2020/02/17 05:36 CST   -0.56   0.45    9  165   12  63.1  60.1 1011.4 -9.9 -9.999 -99.9 -99.99 -9.99
2020/02/17 05:42 CST   -0.55   0.48   11  163   13  63.5  60.1 1011.4 -9.9 -9.999 -99.9 -99.99 -9.99
2020/02/17 05:48 CST   -0.54   0.50    9  161   11  63.3  60.3 1011.4 -9.9 -9.999 -99.9 -99.99 -9.99
2020/02/17 05:54 CST   -0.53   0.51   10  163   13  62.8  60.3 1011.5 -9.9 -9.999 -99.9 -99.99 -9.99
2020/02/17 06:00 CST   -0.51   0.52   11  166   13  63.0  60.3 1011.7 -9.9 -9.999 -99.9 -99.99 -9.99
2020/02/17 06:06 CST   -0.50   0.52   10  165   13  63.0  60.3 1011.8 -9.9 -9.999 -99.9 -99.99 -9.99
2020/02/17 06:12 CST   -0.48   0.57   10  161   12  63.3  60.3 1011.8 -9.9 -9.999 -99.9 -99.99 -9.99
2020/02/17 06:18 CST   -0.46   0.58   10  162   12  63.7  60.3 1011.9 -9.9 -9.999 -99.9 -99.99 -9.99
2020/02/17 06:24 CST   -0.44   0.59    9  163   12  63.3  60.3 1011.9 -9.9 -9.999 -99.9 -99.99 -9.99
2020/02/17 06:30 CST   -0.42   0.61   10  160   12  64.4  60.3 1011.9 -9.9 -9.999 -99.9 -99.99 -9.99
2020/02/17 06:36 CST   -0.40   0.66   11  155   14  64.9  60.3 1011.8 -9.9 -9.999 -99.9 -99.99 -9.99
2020/02/17 06:42 CST   -0.38   0.70   11  155   14  64.6  60.1 1011.9 -9.9 -9.999 -99.9 -99.99 -9.99
2020/02/17 06:48 CST   -0.35   0.74   10  156   12  64.4  60.1 1012.0 -9.9 -9.999 -99.9 -99.99 -9.99
2020/02/17 06:54 CST   -0.33   0.75   10  156   13  64.4  60.1 1012.0 -9.9 -9.999 -99.9 -99.99 -9.99
2020/02/17 07:00 CST   -0.30   0.77    9  151   11  63.9  60.1 1012.0 -9.9 -9.999 -99.9 -99.99 -9.99
2020/02/17 07:06 CST   -0.27   0.81    8  149   11  63.5  59.9 1012.1 -9.9 -9.999 -99.9 -99.99 -9.99
2020/02/17 07:12 CST   -0.25   0.84    9  143   11  63.3  59.9 1012.1 -9.9 -9.999 -99.9 -99.99 -9.99
2020/02/17 07:18 CST   -0.22   0.87    9  144   11  63.3  59.9 1012.0 -9.9 -9.999 -99.9 -99.99 -9.99
2020/02/17 07:24 CST   -0.19   0.87    9  145   10  63.5  59.9 1012.1 -9.9 -9.999 -99.9 -99.99 -9.99
2020/02/17 07:30 CST   -0.16   0.89    9  145   11  63.5  59.9 1012.2 -9.9 -9.999 -99.9 -99.99 -9.99
2020/02/17 07:36 CST   -0.12 -99.99 -999 -999 -999 -99.9 -99.9 -999.9 -9.9 -9.999 -99.9 -99.99 -9.99
2020/02/17 07:42 CST   -0.09 -99.99 -999 -999 -999 -99.9 -99.9 -999.9 -9.9 -9.999 -99.9 -99.99 -9.99
2020/02/17 07:48 CST   -0.06 -99.99 -999 -999 -999 -99.9 -99.9 -999.9 -9.9 -9.999 -99.9 -99.99 -9.99